Wetterdaten: Montag, 25.04.2022
Datum Zeit Temp. Aussen Temp. o. S. Temp +5cm Feuchte Auss Luftdruck Regen Sonnenschein Regendauer Solar Windben Empfang
25.04.2022 00:00 12,2 C 11,1 C 7,8 C 69 % 1007,0 hPa 0,0 l/m 0 min 0 min 0 W/m 25,7 km/h (4 Bft) 100,00 %
25.04.2022 00:02 12,1 C 11,1 C 7,8 C 69 % 1006,9 hPa 0,0 l/m 0 min 0 min 0 W/m 9,7 km/h (2 Bft) 97,67 %
25.04.2022 00:04 12,1 C 11,1 C 7,8 C 69 % 1007,1 hPa 0,0 l/m 0 min 0 min 0 W/m 9,7 km/h (2 Bft) 100,00 %
25.04.2022 00:08 12,1 C 11,1 C 7,8 C 70 % 1007,0 hPa 0,0 l/m 0 min 0 min 0 W/m 9,7 km/h (2 Bft) 100,00 %
25.04.2022 00:10 12,1 C 11,1 C 7,8 C 70 % 1007,1 hPa 0,0 l/m 0 min 0 min 0 W/m 12,9 km/h (3 Bft) 100,00 %
25.04.2022 00:12 12,0 C 11,1 C 7,8 C 70 % 1007,2 hPa 0,0 l/m 0 min 0 min 0 W/m 6,4 km/h (2 Bft) 100,00 %
25.04.2022 00:14 12,0 C 11,1 C 7,8 C 70 % 1007,1 hPa 0,0 l/m 0 min 0 min 0 W/m 12,9 km/h (3 Bft) 97,87 %
25.04.2022 00:16 12,0 C 11,1 C 7,8 C 70 % 1007,1 hPa 0,0 l/m 0 min 0 min 0 W/m 9,7 km/h (2 Bft) 97,87 %
25.04.2022 00:18 11,9 C 11,1 C 7,8 C 71 % 1007,2 hPa 0,0 l/m 0 min 0 min 0 W/m 25,7 km/h (4 Bft) 97,83 %
25.04.2022 00:20 11,9 C 11,1 C 7,8 C 71 % 1007,2 hPa 0,0 l/m 0 min 0 min 0 W/m 9,7 km/h (2 Bft) 97,87 %
25.04.2022 00:22 11,9 C 11,1 C 7,8 C 72 % 1007,2 hPa 0,0 l/m 0 min 0 min 0 W/m 9,7 km/h (2 Bft) 95,74 %
25.04.2022 00:24 11,9 C 11,1 C 7,8 C 72 % 1007,2 hPa 0,0 l/m 0 min 0 min 0 W/m 12,9 km/h (3 Bft) 95,74 %
25.04.2022 00:26 11,9 C 11,1 C 7,8 C 72 % 1007,2 hPa 0,0 l/m 0 min 0 min 0 W/m 9,7 km/h (2 Bft) 95,74 %
25.04.2022 00:28 11,9 C 11,1 C 7,8 C 72 % 1007,3 hPa 0,0 l/m 0 min 0 min 0 W/m 9,7 km/h (2 Bft) 95,74 %
25.04.2022 00:30 11,9 C 11,1 C 7,8 C 72 % 1007,2 hPa 0,0 l/m 0 min 0 min 0 W/m 16,1 km/h (3 Bft) 93,48 %
25.04.2022 00:32 11,8 C 11,1 C 7,8 C 72 % 1007,2 hPa 0,0 l/m 0 min 0 min 0 W/m 12,9 km/h (3 Bft) 95,83 %
25.04.2022 00:34 11,8 C 11,1 C 7,2 C 73 % 1007,3 hPa 0,0 l/m 0 min 0 min 0 W/m 19,3 km/h (3 Bft) 95,74 %
25.04.2022 00:36 11,8 C 11,1 C 7,2 C 73 % 1007,3 hPa 0,0 l/m 0 min 0 min 0 W/m 19,3 km/h (3 Bft) 95,74 %
25.04.2022 00:38 11,7 C 10,6 C 7,2 C 73 % 1007,3 hPa 0,0 l/m 0 min 0 min 0 W/m 12,9 km/h (3 Bft) 95,74 %
25.04.2022 00:40 11,7 C 10,6 C 7,2 C 74 % 1007,3 hPa 0,0 l/m 0 min 0 min 0 W/m 12,9 km/h (3 Bft) 95,65 %
25.04.2022 00:42 11,7 C 10,6 C 7,2 C 74 % 1007,3 hPa 0,0 l/m 0 min 0 min 0 W/m 6,4 km/h (2 Bft) 93,62 %
25.04.2022 00:44 11,7 C 11,1 C 7,2 C 74 % 1007,4 hPa 0,0 l/m 0 min 0 min 0 W/m 12,9 km/h (3 Bft) 95,74 %
25.04.2022 00:46 11,6 C 11,1 C 7,2 C 74 % 1007,5 hPa 0,0 l/m 0 min 0 min 0 W/m 12,9 km/h (3 Bft) 95,74 %
25.04.2022 00:48 11,6 C 11,1 C 7,2 C 74 % 1007,5 hPa 0,0 l/m 0 min 0 min 0 W/m 3,2 km/h (1 Bft) 95,74 %
25.04.2022 00:50 11,6 C 10,6 C 7,2 C 75 % 1007,5 hPa 0,0 l/m 0 min 2 min 0 W/m 19,3 km/h (3 Bft) 97,87 %
25.04.2022 00:52 11,6 C 10,6 C 6,7 C 75 % 1007,6 hPa 0,2 l/m 0 min 2 min 0 W/m 9,7 km/h (2 Bft) 97,83 %
25.04.2022 00:54 11,6 C 10,6 C 6,7 C 76 % 1007,7 hPa 0,0 l/m 0 min 2 min 0 W/m 6,4 km/h (2 Bft) 97,87 %
25.04.2022 00:56 11,6 C 10,0 C 6,1 C 77 % 1007,8 hPa 0,0 l/m 0 min 2 min 0 W/m 9,7 km/h (2 Bft) 97,87 %
25.04.2022 00:58 11,5 C 10,0 C 5,6 C 78 % 1007,8 hPa 0,2 l/m 0 min 2 min 0 W/m 9,7 km/h (2 Bft) 100,00 %
25.04.2022 01:00 11,4 C 9,4 C 6,1 C 79 % 1007,8 hPa 0,0 l/m 0 min 2 min 0 W/m 3,2 km/h (1 Bft) 97,87 %
25.04.2022 01:02 11,4 C 9,4 C 6,1 C 79 % 1007,8 hPa 0,2 l/m 0 min 2 min 0 W/m 9,7 km/h (2 Bft) 97,83 %
25.04.2022 01:04 11,4 C 9,4 C 5,6 C 80 % 1007,9 hPa 0,0 l/m 0 min 2 min 0 W/m 12,9 km/h (3 Bft) 100,00 %
25.04.2022 01:06 11,3 C 9,4 C 5,6 C 81 % 1007,9 hPa 0,0 l/m 0 min 2 min 0 W/m 19,3 km/h (3 Bft) 100,00 %
25.04.2022 01:08 11,3 C 9,4 C 5,6 C 81 % 1007,9 hPa 0,2 l/m 0 min 2 min 0 W/m 9,7 km/h (2 Bft) 100,00 %
25.04.2022 01:10 11,2 C 9,4 C 5,6 C 81 % 1007,9 hPa 0,0 l/m 0 min 2 min 0 W/m 9,7 km/h (2 Bft) 97,87 %
25.04.2022 01:12 11,1 C 9,4 C 5,6 C 82 % 1007,9 hPa 0,2 l/m 0 min 2 min 0 W/m 16,1 km/h (3 Bft) 100,00 %
25.04.2022 01:14 11,1 C 9,4 C 5,0 C 82 % 1007,9 hPa 0,2 l/m 0 min 2 min 0 W/m 12,9 km/h (3 Bft) 100,00 %
25.04.2022 01:16 10,9 C 9,4 C 5,0 C 83 % 1008,0 hPa 0,0 l/m 0 min 2 min 0 W/m 9,7 km/h (2 Bft) 100,00 %
25.04.2022 01:18 10,9 C 9,4 C 5,0 C 83 % 1007,9 hPa 0,4 l/m 0 min 2 min 0 W/m 12,9 km/h (3 Bft) 100,00 %
25.04.2022 01:20 10,8 C 8,9 C 5,0 C 84 % 1008,0 hPa 0,2 l/m 0 min 2 min 0 W/m 9,7 km/h (2 Bft) 100,00 %
25.04.2022 01:22 10,7 C 8,9 C 5,0 C 84 % 1008,0 hPa 0,2 l/m 0 min 2 min 0 W/m 6,4 km/h (2 Bft) 100,00 %
25.04.2022 01:24 10,7 C 8,9 C 5,0 C 84 % 1008,0 hPa 0,2 l/m 0 min 2 min 0 W/m 6,4 km/h (2 Bft) 100,00 %
25.04.2022 01:26 10,6 C 8,9 C 5,0 C 85 % 1008,0 hPa 0,2 l/m 0 min 2 min 0 W/m 3,2 km/h (1 Bft) 100,00 %
25.04.2022 01:28 10,6 C 8,9 C 5,0 C 85 % 1008,1 hPa 0,0 l/m 0 min 2 min 0 W/m 9,7 km/h (2 Bft) 100,00 %
25.04.2022 01:30 10,6 C 8,9 C 5,0 C 86 % 1008,1 hPa 0,2 l/m 0 min 2 min 0 W/m 6,4 km/h (2 Bft) 100,00 %
25.04.2022 01:32 10,6 C 8,9 C 5,0 C 86 % 1008,1 hPa 0,0 l/m 0 min 2 min 0 W/m 6,4 km/h (2 Bft) 100,00 %
25.04.2022 01:34 10,5 C 8,9 C 5,0 C 86 % 1007,9 hPa 0,0 l/m 0 min 2 min 0 W/m 9,7 km/h (2 Bft) 100,00 %
25.04.2022 01:36 10,4 C 8,3 C 5,0 C 86 % 1007,9 hPa 0,4 l/m 0 min 2 min 0 W/m 6,4 km/h (2 Bft) 100,00 %
25.04.2022 01:38 10,4 C 8,3 C 5,0 C 87 % 1007,6 hPa 0,2 l/m 0 min 2 min 0 W/m 9,7 km/h (2 Bft) 97,83 %
25.04.2022 01:40 10,3 C 8,3 C 5,0 C 88 % 1007,5 hPa 0,4 l/m 0 min 2 min 0 W/m 9,7 km/h (2 Bft) 100,00 %
25.04.2022 01:42 10,1 C 8,3 C 5,0 C 88 % 1007,6 hPa 0,0 l/m 0 min 2 min 0 W/m 12,9 km/h (3 Bft) 100,00 %
25.04.2022 01:44 10,1 C 8,3 C 5,0 C 88 % 1007,7 hPa 0,0 l/m 0 min 2 min 0 W/m 19,3 km/h (3 Bft) 100,00 %
25.04.2022 01:46 9,9 C 7,8 C 5,0 C 88 % 1007,8 hPa 0,2 l/m 0 min 2 min 0 W/m 12,9 km/h (3 Bft) 100,00 %
25.04.2022 01:48 9,8 C 7,8 C 5,0 C 89 % 1007,8 hPa 0,0 l/m 0 min 2 min 0 W/m 9,7 km/h (2 Bft) 97,87 %
25.04.2022 01:50 9,8 C 8,3 C 5,0 C 89 % 1007,9 hPa 0,0 l/m 0 min 0 min 0 W/m 9,7 km/h (2 Bft) 95,65 %
25.04.2022 01:52 9,8 C 7,8 C 5,0 C 89 % 1007,9 hPa 0,0 l/m 0 min 0 min 0 W/m 6,4 km/h (2 Bft) 100,00 %
25.04.2022 01:54 9,7 C 7,8 C 5,0 C 89 % 1007,9 hPa 0,0 l/m 0 min 0 min 0 W/m 12,9 km/h (3 Bft) 97,87 %
25.04.2022 01:56 9,7 C 7,8 C 5,0 C 89 % 1008,0 hPa 0,0 l/m 0 min 0 min 0 W/m 6,4 km/h (2 Bft) 100,00 %
25.04.2022 01:58 9,6 C 7,8 C 5,0 C 89 % 1007,9 hPa 0,0 l/m 0 min 0 min 0 W/m 3,2 km/h (1 Bft) 100,00 %
25.04.2022 02:00 9,6 C 7,8 C 5,0 C 90 % 1008,0 hPa 0,0 l/m 0 min 0 min 0 W/m 6,4 km/h (2 Bft) 100,00 %
25.04.2022 02:02 9,6 C 7,8 C 4,4 C 90 % 1008,0 hPa 0,0 l/m 0 min 0 min 0 W/m 9,7 km/h (2 Bft) 93,62 %
25.04.2022 02:04 9,5 C 7,8 C 4,4 C 90 % 1008,0 hPa 0,0 l/m 0 min 0 min 0 W/m 9,7 km/h (2 Bft) 95,65 %
25.04.2022 02:06 9,5 C 7,8 C 4,4 C 90 % 1008,0 hPa 0,0 l/m 0 min 0 min 0 W/m 9,7 km/h (2 Bft) 95,74 %
25.04.2022 02:08 9,4 C 7,8 C 4,4 C 90 % 1008,0 hPa 0,0 l/m 0 min 0 min 0 W/m 9,7 km/h (2 Bft) 95,74 %
25.04.2022 02:10 9,4 C 7,8 C 4,4 C 90 % 1008,0 hPa 0,0 l/m 0 min 0 min 0 W/m 12,9 km/h (3 Bft) 95,74 %
25.04.2022 02:12 9,3 C 7,8 C 4,4 C 90 % 1007,9 hPa 0,0 l/m 0 min 0 min 0 W/m 12,9 km/h (3 Bft) 93,62 %
25.04.2022 02:14 9,2 C 7,8 C 4,4 C 90 % 1007,9 hPa 0,0 l/m 0 min 0 min 0 W/m 19,3 km/h (3 Bft) 93,62 %
25.04.2022 02:16 9,2 C 7,8 C 4,4 C 90 % 1007,9 hPa 0,0 l/m 0 min 0 min 0 W/m 12,9 km/h (3 Bft) 95,65 %
25.04.2022 02:18 9,1 C 7,8 C 4,4 C 90 % 1007,9 hPa 0,0 l/m 0 min 0 min 0 W/m 6,4 km/h (2 Bft) 95,74 %
25.04.2022 02:20 9,1 C 7,8 C 4,4 C 90 % 1007,9 hPa 0,0 l/m 0 min 2 min 0 W/m 9,7 km/h (2 Bft) 95,74 %
25.04.2022 02:22 9,1 C 7,8 C 4,4 C 90 % 1007,9 hPa 0,0 l/m 0 min 0 min 0 W/m 6,4 km/h (2 Bft) 93,62 %
25.04.2022 02:24 9,1 C 7,8 C 4,4 C 91 % 1007,8 hPa 0,0 l/m 0 min 0 min 0 W/m 3,2 km/h (1 Bft) 95,74 %
25.04.2022 02:26 9,1 C 7,8 C 4,4 C 91 % 1007,8 hPa 0,0 l/m 0 min 0 min 0 W/m 9,7 km/h (2 Bft) 97,87 %
25.04.2022 02:28 9,0 C 7,8 C 4,4 C 91 % 1007,8 hPa 0,0 l/m 0 min 0 min 0 W/m 6,4 km/h (2 Bft) 95,65 %
25.04.2022 02:30 9,0 C 7,8 C 4,4 C 91 % 1007,8 hPa 0,0 l/m 0 min 0 min 0 W/m 6,4 km/h (2 Bft) 94,55 %
25.04.2022 02:32 9,1 C 7,8 C 4,4 C 91 % 1007,8 hPa 0,0 l/m 0 min 0 min 0 W/m 6,4 km/h (2 Bft) 93,62 %
25.04.2022 02:34 9,1 C 7,8 C 4,4 C 91 % 1007,8 hPa 0,0 l/m 0 min 0 min 0 W/m 6,4 km/h (2 Bft) 95,74 %
25.04.2022 02:36 9,1 C 7,8 C 4,4 C 91 % 1007,8 hPa 0,0 l/m 0 min 0 min 0 W/m 9,7 km/h (2 Bft) 95,74 %
25.04.2022 02:38 9,1 C 7,8 C 4,4 C 91 % 1007,8 hPa 0,0 l/m 0 min 0 min 0 W/m 9,7 km/h (2 Bft) 93,48 %
25.04.2022 02:40 9,1 C 7,8 C 4,4 C 92 % 1007,9 hPa 0,0 l/m 0 min 0 min 0 W/m 9,7 km/h (2 Bft) 93,62 %
25.04.2022 02:42 9,1 C 7,8 C 4,4 C 92 % 1008,0 hPa 0,0 l/m 0 min 0 min 0 W/m 3,2 km/h (1 Bft) 95,74 %
25.04.2022 02:44 9,0 C 7,8 C 4,4 C 92 % 1008,0 hPa 0,0 l/m 0 min 0 min 0 W/m 3,2 km/h (1 Bft) 53,33 %
25.04.2022 02:46 9,0 C 7,8 C 4,4 C 92 % 1008,0 hPa 0,0 l/m 0 min 0 min 0 W/m 6,4 km/h (2 Bft) 91,49 %
25.04.2022 02:48 9,0 C 7,8 C 4,4 C 92 % 1008,1 hPa 0,0 l/m 0 min 0 min 0 W/m 6,4 km/h (2 Bft) 95,65 %
25.04.2022 02:50 9,0 C 7,8 C 4,4 C 92 % 1008,1 hPa 0,0 l/m 0 min 0 min 0 W/m 6,4 km/h (2 Bft) 95,74 %
25.04.2022 02:52 9,0 C 8,3 C 4,4 C 92 % 1008,1 hPa 0,0 l/m 0 min 0 min 0 W/m 6,4 km/h (2 Bft) 95,74 %
25.04.2022 02:54 9,1 C 8,3 C 4,4 C 92 % 1008,2 hPa 0,0 l/m 0 min 0 min 0 W/m 6,4 km/h (2 Bft) 93,62 %
25.04.2022 02:56 9,1 C 8,3 C 4,4 C 92 % 1008,1 hPa 0,0 l/m 0 min 0 min 0 W/m 6,4 km/h (2 Bft) 95,74 %
25.04.2022 02:58 9,1 C 8,3 C 4,4 C 92 % 1008,2 hPa 0,0 l/m 0 min 0 min 0 W/m 6,4 km/h (2 Bft) 95,74 %
25.04.2022 03:00 9,1 C 8,3 C 4,4 C 93 % 1008,2 hPa 0,0 l/m 0 min 0 min 0 W/m 9,7 km/h (2 Bft) 95,65 %
25.04.2022 03:02 9,1 C 8,3 C 4,4 C 93 % 1008,3 hPa 0,0 l/m 0 min 0 min 0 W/m 6,4 km/h (2 Bft) 97,87 %
25.04.2022 03:04 9,1 C 8,3 C 5,0 C 93 % 1008,3 hPa 0,0 l/m 0 min 0 min 0 W/m 6,4 km/h (2 Bft) 97,87 %
25.04.2022 03:06 9,1 C 8,3 C 5,0 C 93 % 1008,3 hPa 0,0 l/m 0 min 0 min 0 W/m 6,4 km/h (2 Bft) 95,74 %
25.04.2022 03:08 9,1 C 8,3 C 5,0 C 93 % 1008,3 hPa 0,0 l/m 0 min 0 min 0 W/m 6,4 km/h (2 Bft) 97,87 %
25.04.2022 03:10 9,2 C 8,3 C 4,4 C 93 % 1008,2 hPa 0,0 l/m 0 min 0 min 0 W/m 6,4 km/h (2 Bft) 100,00 %
25.04.2022 03:12 9,2 C 8,3 C 4,4 C 93 % 1008,2 hPa 0,0 l/m 0 min 0 min 0 W/m 3,2 km/h (1 Bft) 97,83 %
25.04.2022 03:14 9,2 C 8,3 C 4,4 C 93 % 1008,1 hPa 0,0 l/m 0 min 0 min 0 W/m 6,4 km/h (2 Bft) 100,00 %
25.04.2022 03:16 9,2 C 8,3 C 4,4 C 93 % 1008,1 hPa 0,0 l/m 0 min 0 min 0 W/m 9,7 km/h (2 Bft) 97,87 %
25.04.2022 03:18 9,1 C 8,3 C 4,4 C 93 % 1008,1 hPa 0,0 l/m 0 min 0 min 0 W/m 9,7 km/h (2 Bft) 100,00 %
25.04.2022 03:20 9,1 C 8,3 C 4,4 C 93 % 1008,1 hPa 0,0 l/m 0 min 0 min 0 W/m 9,7 km/h (2 Bft) 100,00 %
25.04.2022 03:22 9,1 C 7,8 C 4,4 C 93 % 1008,0 hPa 0,0 l/m 0 min 0 min 0 W/m 9,7 km/h (2 Bft) 97,87 %
25.04.2022 03:24 9,1 C 7,8 C 4,4 C 93 % 1008,0 hPa 0,0 l/m 0 min 0 min 0 W/m 6,4 km/h (2 Bft) 100,00 %
25.04.2022 03:26 9,1 C 7,8 C 4,4 C 93 % 1007,9 hPa 0,0 l/m 0 min 0 min 0 W/m 6,4 km/h (2 Bft) 100,00 %
25.04.2022 03:28 9,0 C 7,8 C 4,4 C 93 % 1007,9 hPa 0,0 l/m 0 min 0 min 0 W/m 9,7 km/h (2 Bft) 100,00 %
25.04.2022 03:30 8,9 C 7,8 C 4,4 C 93 % 1007,9 hPa 0,0 l/m 0 min 0 min 0 W/m 22,5 km/h (4 Bft) 100,00 %
25.04.2022 03:32 8,9 C 7,8 C 3,9 C 93 % 1007,8 hPa 0,0 l/m 0 min 0 min 0 W/m 9,7 km/h (2 Bft) 100,00 %
25.04.2022 03:34 8,8 C 7,8 C 3,9 C 93 % 1007,8 hPa 0,0 l/m 0 min 0 min 0 W/m 9,7 km/h (2 Bft) 100,00 %
25.04.2022 03:36 8,8 C 7,8 C 3,9 C 93 % 1007,8 hPa 0,0 l/m 0 min 0 min 0 W/m 12,9 km/h (3 Bft) 100,00 %
25.04.2022 03:38 8,7 C 7,8 C 3,9 C 93 % 1007,7 hPa 0,0 l/m 0 min 2 min 0 W/m 9,7 km/h (2 Bft) 97,87 %
25.04.2022 03:40 8,7 C 7,8 C 3,9 C 93 % 1007,7 hPa 0,0 l/m 0 min 2 min 0 W/m 9,7 km/h (2 Bft) 97,87 %
25.04.2022 03:42 8,7 C 7,8 C 3,9 C 93 % 1007,6 hPa 0,0 l/m 0 min 0 min 0 W/m 9,7 km/h (2 Bft) 100,00 %
25.04.2022 03:44 8,7 C 7,8 C 3,9 C 93 % 1007,6 hPa 0,0 l/m 0 min 0 min 0 W/m 9,7 km/h (2 Bft) 100,00 %
25.04.2022 03:46 8,6 C 7,8 C 4,4 C 93 % 1007,6 hPa 0,0 l/m 0 min 2 min 0 W/m 6,4 km/h (2 Bft) 97,87 %
25.04.2022 03:48 8,6 C 7,8 C 4,4 C 93 % 1007,6 hPa 0,0 l/m 0 min 0 min 0 W/m 9,7 km/h (2 Bft) 97,83 %
25.04.2022 03:50 8,6 C 7,8 C 4,4 C 93 % 1007,6 hPa 0,0 l/m 0 min 0 min 0 W/m 9,7 km/h (2 Bft) 93,62 %
25.04.2022 03:52 8,6 C 7,8 C 4,4 C 93 % 1007,6 hPa 0,0 l/m 0 min 0 min 0 W/m 6,4 km/h (2 Bft) 97,87 %
25.04.2022 03:54 8,6 C 7,8 C 4,4 C 93 % 1007,6 hPa 0,0 l/m 0 min 0 min 0 W/m 12,9 km/h (3 Bft) 97,87 %
25.04.2022 03:56 8,6 C 7,8 C 3,9 C 93 % 1007,6 hPa 0,0 l/m 0 min 0 min 0 W/m 16,1 km/h (3 Bft) 97,87 %
25.04.2022 03:58 8,6 C 7,8 C 3,9 C 93 % 1007,6 hPa 0,0 l/m 0 min 0 min 0 W/m 6,4 km/h (2 Bft) 97,83 %
25.04.2022 04:00 8,6 C 7,8 C 3,9 C 93 % 1007,6 hPa 0,0 l/m 0 min 0 min 0 W/m 6,4 km/h (2 Bft) 95,74 %
25.04.2022 04:02 8,6 C 7,8 C 3,9 C 93 % 1007,6 hPa 0,0 l/m 0 min 0 min 0 W/m 6,4 km/h (2 Bft) 100,00 %
25.04.2022 04:04 8,6 C 7,8 C 3,9 C 93 % 1007,7 hPa 0,0 l/m 0 min 0 min 0 W/m 3,2 km/h (1 Bft) 97,87 %
25.04.2022 04:06 8,6 C 7,8 C 3,9 C 93 % 1007,7 hPa 0,0 l/m 0 min 0 min 0 W/m 3,2 km/h (1 Bft) 97,87 %
25.04.2022 04:08 8,6 C 7,8 C 3,9 C 93 % 1007,8 hPa 0,0 l/m 0 min 0 min 0 W/m 3,2 km/h (1 Bft) 97,87 %
25.04.2022 04:10 8,6 C 7,8 C 3,9 C 93 % 1007,9 hPa 0,0 l/m 0 min 0 min 0 W/m 9,7 km/h (2 Bft) 97,83 %
25.04.2022 04:12 8,6 C 7,8 C 4,4 C 93 % 1007,9 hPa 0,0 l/m 0 min 0 min 0 W/m 6,4 km/h (2 Bft) 97,87 %
25.04.2022 04:14 8,6 C 7,8 C 4,4 C 93 % 1007,9 hPa 0,0 l/m 0 min 0 min 0 W/m 9,7 km/h (2 Bft) 97,87 %
25.04.2022 04:16 8,6 C 7,8 C 3,9 C 93 % 1007,9 hPa 0,0 l/m 0 min 0 min 0 W/m 6,4 km/h (2 Bft) 100,00 %
25.04.2022 04:18 8,6 C 7,8 C 3,9 C 93 % 1007,9 hPa 0,0 l/m 0 min 0 min 0 W/m 6,4 km/h (2 Bft) 100,00 %
25.04.2022 04:20 8,6 C 7,8 C 3,9 C 93 % 1007,9 hPa 0,0 l/m 0 min 0 min 0 W/m 3,2 km/h (1 Bft) 100,00 %
25.04.2022 04:22 8,6 C 7,8 C 3,9 C 93 % 1007,9 hPa 0,0 l/m 0 min 0 min 0 W/m 3,2 km/h (1 Bft) 100,00 %
25.04.2022 04:24 8,6 C 7,2 C 3,9 C 93 % 1007,9 hPa 0,0 l/m 0 min 0 min 0 W/m 0,0 km/h (0 Bft) 100,00 %
25.04.2022 04:26 8,5 C 7,2 C 3,9 C 93 % 1007,8 hPa 0,0 l/m 0 min 0 min 0 W/m 6,4 km/h (2 Bft) 100,00 %
25.04.2022 04:28 8,4 C 7,2 C 3,9 C 93 % 1007,8 hPa 0,0 l/m 0 min 0 min 0 W/m 6,4 km/h (2 Bft) 100,00 %
25.04.2022 04:30 8,4 C 7,2 C 3,9 C 93 % 1007,8 hPa 0,0 l/m 0 min 0 min 0 W/m 0,0 km/h (0 Bft) 97,87 %
25.04.2022 04:32 8,4 C 7,2 C 3,9 C 93 % 1007,8 hPa 0,0 l/m 0 min 0 min 0 W/m 3,2 km/h (1 Bft) 97,83 %
25.04.2022 04:34 8,4 C 7,2 C 3,9 C 93 % 1007,8 hPa 0,0 l/m 0 min 0 min 0 W/m 3,2 km/h (1 Bft) 100,00 %
25.04.2022 04:36 8,3 C 7,2 C 3,9 C 93 % 1007,9 hPa 0,0 l/m 0 min 0 min 0 W/m 6,4 km/h (2 Bft) 100,00 %
25.04.2022 04:38 8,3 C 7,2 C 3,3 C 93 % 1007,9 hPa 0,0 l/m 0 min 0 min 0 W/m 6,4 km/h (2 Bft) 100,00 %
25.04.2022 04:40 8,2 C 7,2 C 3,3 C 93 % 1007,9 hPa 0,0 l/m 0 min 0 min 0 W/m 9,7 km/h (2 Bft) 97,87 %
25.04.2022 04:42 8,2 C 7,2 C 3,3 C 93 % 1007,9 hPa 0,0 l/m 0 min 0 min 0 W/m 6,4 km/h (2 Bft) 97,87 %
25.04.2022 04:44 8,1 C 6,7 C 3,3 C 93 % 1007,9 hPa 0,0 l/m 0 min 0 min 0 W/m 3,2 km/h (1 Bft) 97,83 %
25.04.2022 04:46 8,1 C 6,7 C 3,3 C 93 % 1007,9 hPa 0,0 l/m 0 min 0 min 0 W/m 3,2 km/h (1 Bft) 97,87 %
25.04.2022 04:48 7,9 C 6,7 C 3,3 C 93 % 1007,9 hPa 0,0 l/m 0 min 0 min 0 W/m 3,2 km/h (1 Bft) 97,87 %
25.04.2022 04:50 7,9 C 6,7 C 3,3 C 93 % 1007,9 hPa 0,0 l/m 0 min 0 min 0 W/m 3,2 km/h (1 Bft) 97,87 %
25.04.2022 04:52 7,9 C 6,7 C 3,3 C 93 % 1007,9 hPa 0,0 l/m 0 min 0 min 0 W/m 3,2 km/h (1 Bft) 97,87 %
25.04.2022 04:54 7,9 C 6,7 C 3,3 C 93 % 1007,9 hPa 0,0 l/m 0 min 0 min 0 W/m 0,0 km/h (0 Bft) 97,87 %
25.04.2022 04:56 7,9 C 6,7 C 3,3 C 93 % 1007,9 hPa 0,0 l/m 0 min 0 min 0 W/m 0,0 km/h (0 Bft) 97,83 %
25.04.2022 04:58 7,9 C 6,7 C 3,3 C 93 % 1008,0 hPa 0,0 l/m 0 min 0 min 0 W/m 0,0 km/h (0 Bft) 97,87 %
25.04.2022 05:00 7,9 C 6,7 C 3,3 C 93 % 1008,0 hPa 0,0 l/m 0 min 0 min 0 W/m 0,0 km/h (0 Bft) 97,87 %
25.04.2022 05:02 7,9 C 6,7 C 3,3 C 93 % 1008,0 hPa 0,0 l/m 0 min 0 min 0 W/m 0,0 km/h (0 Bft) 93,62 %
25.04.2022 05:04 7,8 C 6,7 C 3,3 C 93 % 1008,1 hPa 0,0 l/m 0 min 0 min 0 W/m 0,0 km/h (0 Bft) 97,87 %
25.04.2022 05:06 7,8 C 6,7 C 3,3 C 93 % 1008,1 hPa 0,0 l/m 0 min 0 min 0 W/m 0,0 km/h (0 Bft) 100,00 %
25.04.2022 05:08 7,8 C 6,7 C 3,3 C 93 % 1008,1 hPa 0,0 l/m 0 min 0 min 0 W/m 0,0 km/h (0 Bft) 97,83 %
25.04.2022 05:10 7,8 C 6,7 C 3,3 C 93 % 1008,1 hPa 0,0 l/m 0 min 0 min 0 W/m 0,0 km/h (0 Bft) 97,87 %
25.04.2022 05:12 7,8 C 6,1 C 3,3 C 93 % 1008,1 hPa 0,0 l/m 0 min 0 min 0 W/m 0,0 km/h (0 Bft) 97,87 %
25.04.2022 05:14 7,7 C 6,1 C 3,3 C 93 % 1008,1 hPa 0,0 l/m 0 min 0 min 0 W/m 3,2 km/h (1 Bft) 95,74 %
25.04.2022 05:16 7,7 C 6,1 C 3,3 C 93 % 1008,1 hPa 0,0 l/m 0 min 0 min 0 W/m 3,2 km/h (1 Bft) 97,87 %
25.04.2022 05:18 7,7 C 6,1 C 3,3 C 93 % 1008,1 hPa 0,0 l/m 0 min 0 min 0 W/m 0,0 km/h (0 Bft) 98,00 %
25.04.2022 05:20 7,6 C 6,1 C 3,3 C 93 % 1008,1 hPa 0,0 l/m 0 min 0 min 0 W/m 6,4 km/h (2 Bft) 100,00 %
25.04.2022 05:22 7,6 C 6,1 C 3,3 C 93 % 1008,2 hPa 0,0 l/m 0 min 0 min 0 W/m 6,4 km/h (2 Bft) 98,08 %
25.04.2022 05:24 7,6 C 6,1 C 3,3 C 93 % 1008,2 hPa 0,0 l/m 0 min 0 min 0 W/m 0,0 km/h (0 Bft) 100,00 %
25.04.2022 05:26 7,6 C 6,1 C 3,3 C 93 % 1008,2 hPa 0,0 l/m 0 min 0 min 0 W/m 3,2 km/h (1 Bft) 95,74 %
25.04.2022 05:28 7,5 C 6,1 C 3,3 C 93 % 1008,2 hPa 0,0 l/m 0 min 0 min 0 W/m 0,0 km/h (0 Bft) 97,87 %
25.04.2022 05:30 7,5 C 6,1 C 2,8 C 93 % 1008,2 hPa 0,0 l/m 0 min 0 min 0 W/m 0,0 km/h (0 Bft) 95,74 %
25.04.2022 05:32 7,4 C 6,1 C 2,8 C 93 % 1008,2 hPa 0,0 l/m 0 min 0 min 0 W/m 3,2 km/h (1 Bft) 95,74 %
25.04.2022 05:34 7,4 C 6,1 C 2,8 C 93 % 1008,2 hPa 0,0 l/m 0 min 0 min 0 W/m 0,0 km/h (0 Bft) 95,74 %
25.04.2022 05:36 7,4 C 6,1 C 2,8 C 93 % 1008,2 hPa 0,0 l/m 0 min 0 min 0 W/m 0,0 km/h (0 Bft) 93,62 %
25.04.2022 05:38 7,3 C 6,1 C 2,8 C 93 % 1008,2 hPa 0,0 l/m 0 min 0 min 0 W/m 3,2 km/h (1 Bft) 95,74 %
25.04.2022 05:40 7,3 C 6,1 C 2,8 C 93 % 1008,2 hPa 0,0 l/m 0 min 0 min 0 W/m 3,2 km/h (1 Bft) 93,62 %
25.04.2022 05:42 7,3 C 6,1 C 2,8 C 93 % 1008,3 hPa 0,0 l/m 0 min 0 min 0 W/m 0,0 km/h (0 Bft) 97,83 %
25.04.2022 05:44 7,2 C 6,1 C 2,8 C 93 % 1008,3 hPa 0,0 l/m 0 min 0 min 0 W/m 0,0 km/h (0 Bft) 95,74 %
25.04.2022 05:46 7,2 C 6,1 C 2,8 C 93 % 1008,3 hPa 0,0 l/m 0 min 0 min 0 W/m 3,2 km/h (1 Bft) 97,87 %
25.04.2022 05:48 7,2 C 6,1 C 2,8 C 93 % 1008,3 hPa 0,0 l/m 0 min 0 min 0 W/m 3,2 km/h (1 Bft) 93,62 %
25.04.2022 05:50 7,2 C 6,1 C 2,8 C 93 % 1008,3 hPa 0,0 l/m 0 min 0 min 0 W/m 3,2 km/h (1 Bft) 95,74 %
25.04.2022 05:52 7,2 C 6,1 C 3,3 C 93 % 1008,3 hPa 0,0 l/m 0 min 0 min 0 W/m 0,0 km/h (0 Bft) 95,74 %
25.04.2022 05:54 7,2 C 6,1 C 3,3 C 93 % 1008,3 hPa 0,0 l/m 0 min 0 min 0 W/m 3,2 km/h (1 Bft) 95,65 %
25.04.2022 05:56 7,2 C 6,1 C 3,3 C 93 % 1008,4 hPa 0,0 l/m 0 min 0 min 0 W/m 3,2 km/h (1 Bft) 95,74 %
25.04.2022 05:58 7,2 C 6,1 C 3,3 C 93 % 1008,4 hPa 0,0 l/m 0 min 0 min 0 W/m 3,2 km/h (1 Bft) 97,87 %
25.04.2022 06:00 7,2 C 6,1 C 3,3 C 93 % 1008,4 hPa 0,0 l/m 0 min 0 min 0 W/m 3,2 km/h (1 Bft) 97,87 %
25.04.2022 06:02 7,2 C 6,1 C 3,3 C 93 % 1008,5 hPa 0,0 l/m 0 min 0 min 0 W/m 9,7 km/h (2 Bft) 97,87 %
25.04.2022 06:04 7,2 C 6,1 C 3,3 C 93 % 1008,5 hPa 0,0 l/m 0 min 0 min 0 W/m 3,2 km/h (1 Bft) 97,87 %
25.04.2022 06:08 7,2 C 6,7 C 3,3 C 94 % 1008,5 hPa 0,0 l/m 0 min 0 min 0 W/m 3,2 km/h (1 Bft) 97,85 %
25.04.2022 06:10 7,2 C 6,7 C 3,3 C 94 % 1008,5 hPa 0,0 l/m 0 min 0 min 0 W/m 3,2 km/h (1 Bft) 97,87 %
25.04.2022 06:12 7,2 C 6,7 C 3,3 C 94 % 1008,5 hPa 0,0 l/m 0 min 0 min 0 W/m 3,2 km/h (1 Bft) 97,87 %
25.04.2022 06:14 7,2 C 6,7 C 3,3 C 94 % 1008,6 hPa 0,0 l/m 0 min 0 min 0 W/m 0,0 km/h (0 Bft) 95,74 %
25.04.2022 06:16 7,2 C 6,7 C 3,3 C 94 % 1008,6 hPa 0,0 l/m 0 min 0 min 0 W/m 0,0 km/h (0 Bft) 97,87 %
25.04.2022 06:18 7,3 C 6,7 C 3,3 C 94 % 1008,6 hPa 0,0 l/m 0 min 0 min 0 W/m 0,0 km/h (0 Bft) 97,83 %
25.04.2022 06:20 7,3 C 6,7 C 3,3 C 94 % 1008,6 hPa 0,0 l/m 0 min 0 min 0 W/m 3,2 km/h (1 Bft) 97,87 %
25.04.2022 06:22 7,3 C 6,7 C 3,3 C 94 % 1008,6 hPa 0,0 l/m 0 min 0 min 0 W/m 0,0 km/h (0 Bft) 97,87 %
25.04.2022 06:24 7,3 C 6,7 C 3,3 C 94 % 1008,6 hPa 0,0 l/m 0 min 0 min 0 W/m 0,0 km/h (0 Bft) 97,87 %
25.04.2022 06:26 7,3 C 6,7 C 3,3 C 94 % 1008,6 hPa 0,0 l/m 0 min 0 min 4 W/m 0,0 km/h (0 Bft) 97,87 %
25.04.2022 06:28 7,3 C 6,1 C 3,3 C 94 % 1008,6 hPa 0,0 l/m 0 min 0 min 5 W/m 0,0 km/h (0 Bft) 97,87 %
25.04.2022 06:30 7,3 C 6,1 C 3,3 C 94 % 1008,7 hPa 0,0 l/m 0 min 0 min 5 W/m 0,0 km/h (0 Bft) 97,83 %
25.04.2022 06:32 7,3 C 6,1 C 2,8 C 94 % 1008,6 hPa 0,0 l/m 0 min 0 min 6 W/m 0,0 km/h (0 Bft) 95,74 %
25.04.2022 06:34 7,2 C 6,1 C 2,8 C 94 % 1008,7 hPa 0,0 l/m 0 min 0 min 7 W/m 3,2 km/h (1 Bft) 100,00 %
25.04.2022 06:36 7,2 C 6,1 C 2,8 C 94 % 1008,7 hPa 0,0 l/m 0 min 0 min 7 W/m 0,0 km/h (0 Bft) 100,00 %
25.04.2022 06:38 7,2 C 6,1 C 2,8 C 94 % 1008,8 hPa 0,0 l/m 0 min 0 min 9 W/m 3,2 km/h (1 Bft) 100,00 %
25.04.2022 06:40 7,2 C 6,1 C 2,8 C 94 % 1008,7 hPa 0,0 l/m 0 min 0 min 9 W/m 0,0 km/h (0 Bft) 97,83 %
25.04.2022 06:42 7,2 C 6,1 C 2,8 C 94 % 1008,8 hPa 0,0 l/m 0 min 0 min 11 W/m 0,0 km/h (0 Bft) 93,62 %
25.04.2022 06:44 7,2 C 6,1 C 2,8 C 94 % 1008,8 hPa 0,0 l/m 0 min 0 min 11 W/m 0,0 km/h (0 Bft) 100,00 %
25.04.2022 06:46 7,1 C 6,1 C 2,8 C 94 % 1008,8 hPa 0,0 l/m 0 min 0 min 12 W/m 3,2 km/h (1 Bft) 95,74 %
25.04.2022 06:48 7,1 C 6,1 C 2,8 C 94 % 1008,9 hPa 0,0 l/m 0 min 0 min 14 W/m 3,2 km/h (1 Bft) 97,87 %
25.04.2022 06:50 7,1 C 6,1 C 2,8 C 94 % 1008,8 hPa 0,0 l/m 0 min 0 min 16 W/m 0,0 km/h (0 Bft) 95,74 %
25.04.2022 06:52 7,1 C 6,1 C 2,8 C 94 % 1008,8 hPa 0,0 l/m 0 min 0 min 19 W/m 3,2 km/h (1 Bft) 97,83 %
25.04.2022 06:54 7,1 C 6,1 C 3,3 C 94 % 1008,8 hPa 0,0 l/m 0 min 0 min 23 W/m 0,0 km/h (0 Bft) 97,87 %
25.04.2022 06:56 7,1 C 6,7 C 3,3 C 94 % 1008,8 hPa 0,0 l/m 0 min 0 min 30 W/m 0,0 km/h (0 Bft) 97,87 %
25.04.2022 06:58 7,1 C 6,7 C 3,3 C 94 % 1008,8 hPa 0,0 l/m 0 min 0 min 37 W/m 0,0 km/h (0 Bft) 97,87 %
25.04.2022 07:00 7,1 C 6,7 C 3,3 C 94 % 1008,8 hPa 0,0 l/m 0 min 0 min 42 W/m 0,0 km/h (0 Bft) 97,87 %
25.04.2022 07:02 7,1 C 6,7 C 3,3 C 94 % 1008,9 hPa 0,0 l/m 0 min 0 min 45 W/m 3,2 km/h (1 Bft) 97,87 %
25.04.2022 07:04 7,1 C 6,7 C 3,3 C 94 % 1008,8 hPa 0,0 l/m 0 min 0 min 47 W/m 3,2 km/h (1 Bft) 97,83 %
25.04.2022 07:06 7,1 C 6,7 C 3,3 C 94 % 1008,9 hPa 0,0 l/m 0 min 0 min 49 W/m 3,2 km/h (1 Bft) 95,74 %
25.04.2022 07:08 7,1 C 6,7 C 3,3 C 94 % 1008,9 hPa 0,0 l/m 0 min 0 min 48 W/m 3,2 km/h (1 Bft) 95,74 %
25.04.2022 07:10 7,2 C 7,2 C 3,3 C 95 % 1008,9 hPa 0,0 l/m 0 min 0 min 43 W/m 3,2 km/h (1 Bft) 95,74 %
25.04.2022 07:12 7,2 C 7,2 C 3,3 C 95 % 1008,9 hPa 0,0 l/m 0 min 0 min 39 W/m 3,2 km/h (1 Bft) 95,74 %
25.04.2022 07:14 7,3 C 7,2 C 3,3 C 95 % 1008,9 hPa 0,0 l/m 0 min 0 min 34 W/m 0,0 km/h (0 Bft) 95,74 %
25.04.2022 07:16 7,4 C 7,2 C 3,9 C 95 % 1008,9 hPa 0,0 l/m 0 min 0 min 32 W/m 0,0 km/h (0 Bft) 93,48 %
25.04.2022 07:18 7,4 C 7,2 C 3,3 C 95 % 1008,9 hPa 0,0 l/m 0 min 0 min 32 W/m 0,0 km/h (0 Bft) 93,62 %
25.04.2022 07:20 7,4 C 7,2 C 3,9 C 95 % 1008,8 hPa 0,0 l/m 0 min 0 min 32 W/m 0,0 km/h (0 Bft) 93,62 %
25.04.2022 07:22 7,5 C 7,2 C 3,3 C 95 % 1008,8 hPa 0,0 l/m 0 min 0 min 32 W/m 0,0 km/h (0 Bft) 95,74 %
25.04.2022 07:24 7,6 C 7,2 C 3,3 C 95 % 1008,8 hPa 0,0 l/m 0 min 0 min 32 W/m 0,0 km/h (0 Bft) 95,74 %
25.04.2022 07:26 7,6 C 7,2 C 3,3 C 95 % 1008,8 hPa 0,0 l/m 0 min 0 min 34 W/m 0,0 km/h (0 Bft) 97,87 %
25.04.2022 07:28 7,6 C 7,2 C 3,3 C 95 % 1008,9 hPa 0,0 l/m 0 min 0 min 38 W/m 0,0 km/h (0 Bft) 97,83 %
25.04.2022 07:30 7,6 C 7,2 C 3,3 C 95 % 1008,9 hPa 0,0 l/m 0 min 0 min 42 W/m 0,0 km/h (0 Bft) 97,87 %
25.04.2022 07:32 7,6 C 7,2 C 3,3 C 95 % 1009,0 hPa 0,0 l/m 0 min 0 min 45 W/m 0,0 km/h (0 Bft) 97,92 %
25.04.2022 07:34 7,6 C 7,2 C 3,9 C 95 % 1009,0 hPa 0,0 l/m 0 min 0 min 48 W/m 3,2 km/h (1 Bft) 97,87 %
25.04.2022 07:36 7,6 C 7,2 C 3,9 C 95 % 1009,1 hPa 0,0 l/m 0 min 0 min 51 W/m 3,2 km/h (1 Bft) 97,87 %
25.04.2022 07:38 7,6 C 7,2 C 3,9 C 95 % 1009,1 hPa 0,0 l/m 0 min 0 min 54 W/m 3,2 km/h (1 Bft) 97,83 %
25.04.2022 07:40 7,7 C 7,2 C 3,9 C 95 % 1009,1 hPa 0,0 l/m 0 min 0 min 58 W/m 3,2 km/h (1 Bft) 100,00 %
25.04.2022 07:42 7,7 C 7,2 C 3,9 C 95 % 1009,1 hPa 0,0 l/m 0 min 0 min 62 W/m 0,0 km/h (0 Bft) 100,00 %
25.04.2022 07:44 7,7 C 7,8 C 3,9 C 95 % 1009,2 hPa 0,0 l/m 0 min 0 min 69 W/m 0,0 km/h (0 Bft) 100,00 %
25.04.2022 07:46 7,7 C 7,8 C 3,9 C 95 % 1009,2 hPa 0,0 l/m 0 min 0 min 70 W/m 0,0 km/h (0 Bft) 100,00 %
25.04.2022 07:48 7,8 C 7,8 C 3,9 C 95 % 1009,2 hPa 0,0 l/m 0 min 0 min 70 W/m 0,0 km/h (0 Bft) 100,00 %
25.04.2022 07:50 7,8 C 7,8 C 3,9 C 95 % 1009,3 hPa 0,0 l/m 0 min 0 min 70 W/m 3,2 km/h (1 Bft) 97,83 %
25.04.2022 07:52 7,8 C 7,8 C 3,9 C 95 % 1009,4 hPa 0,0 l/m 0 min 0 min 69 W/m 3,2 km/h (1 Bft) 100,00 %
25.04.2022 07:54 7,8 C 7,8 C 3,9 C 95 % 1009,4 hPa 0,0 l/m 0 min 0 min 69 W/m 3,2 km/h (1 Bft) 100,00 %
25.04.2022 07:56 7,8 C 7,8 C 3,9 C 95 % 1009,4 hPa 0,0 l/m 0 min 0 min 68 W/m 3,2 km/h (1 Bft) 97,87 %
25.04.2022 07:58 7,9 C 7,8 C 3,9 C 95 % 1009,4 hPa 0,0 l/m 0 min 0 min 64 W/m 3,2 km/h (1 Bft) 100,00 %
25.04.2022 08:00 7,9 C 7,8 C 3,9 C 95 % 1009,4 hPa 0,0 l/m 0 min 0 min 62 W/m 3,2 km/h (1 Bft) 89,36 %
25.04.2022 08:02 7,9 C 7,8 C 3,9 C 95 % 1009,4 hPa 0,0 l/m 0 min 0 min 62 W/m 3,2 km/h (1 Bft) 65,12 %
25.04.2022 08:04 7,9 C 7,8 C 3,9 C 95 % 1009,4 hPa 0,0 l/m 0 min 0 min 60 W/m 3,2 km/h (1 Bft) 100,00 %
25.04.2022 08:06 8,0 C 7,8 C 3,9 C 95 % 1009,4 hPa 0,0 l/m 0 min 0 min 57 W/m 3,2 km/h (1 Bft) 97,87 %
25.04.2022 08:08 8,0 C 7,8 C 3,9 C 95 % 1009,4 hPa 0,0 l/m 0 min 0 min 56 W/m 3,2 km/h (1 Bft) 100,00 %
25.04.2022 08:10 8,0 C 7,8 C 3,9 C 95 % 1009,4 hPa 0,0 l/m 0 min 0 min 56 W/m 3,2 km/h (1 Bft) 97,87 %
25.04.2022 08:12 8,1 C 7,8 C 3,9 C 95 % 1009,4 hPa 0,0 l/m 0 min 0 min 54 W/m 3,2 km/h (1 Bft) 100,00 %
25.04.2022 08:14 8,1 C 7,8 C 3,9 C 95 % 1009,4 hPa 0,0 l/m 0 min 0 min 53 W/m 3,2 km/h (1 Bft) 100,00 %
25.04.2022 08:16 8,1 C 7,8 C 3,9 C 96 % 1009,5 hPa 0,0 l/m 0 min 0 min 49 W/m 0,0 km/h (0 Bft) 100,00 %
25.04.2022 08:18 8,1 C 7,8 C 4,4 C 96 % 1009,5 hPa 0,0 l/m 0 min 0 min 47 W/m 0,0 km/h (0 Bft) 100,00 %
25.04.2022 08:20 8,1 C 7,8 C 4,4 C 96 % 1009,5 hPa 0,0 l/m 0 min 0 min 42 W/m 0,0 km/h (0 Bft) 100,00 %
25.04.2022 08:22 8,2 C 7,8 C 4,4 C 96 % 1009,6 hPa 0,0 l/m 0 min 0 min 39 W/m 0,0 km/h (0 Bft) 100,00 %
25.04.2022 08:24 8,2 C 8,3 C 4,4 C 96 % 1009,6 hPa 0,0 l/m 0 min 0 min 38 W/m 0,0 km/h (0 Bft) 100,00 %
25.04.2022 08:26 8,2 C 8,3 C 4,4 C 96 % 1009,6 hPa 0,0 l/m 0 min 0 min 37 W/m 0,0 km/h (0 Bft) 100,00 %
25.04.2022 08:28 8,2 C 8,3 C 4,4 C 96 % 1009,6 hPa 0,0 l/m 0 min 0 min 37 W/m 0,0 km/h (0 Bft) 97,87 %
25.04.2022 08:30 8,2 C 8,3 C 4,4 C 96 % 1009,6 hPa 0,0 l/m 0 min 0 min 37 W/m 0,0 km/h (0 Bft) 97,87 %
25.04.2022 08:32 8,3 C 8,3 C 4,4 C 96 % 1009,6 hPa 0,0 l/m 0 min 0 min 39 W/m 0,0 km/h (0 Bft) 100,00 %
25.04.2022 08:34 8,3 C 8,3 C 4,4 C 96 % 1009,6 hPa 0,0 l/m 0 min 0 min 40 W/m 0,0 km/h (0 Bft) 100,00 %
25.04.2022 08:36 8,3 C 8,3 C 4,4 C 96 % 1009,6 hPa 0,0 l/m 0 min 0 min 43 W/m 0,0 km/h (0 Bft) 100,00 %
25.04.2022 08:38 8,3 C 8,3 C 4,4 C 96 % 1009,7 hPa 0,0 l/m 0 min 0 min 45 W/m 0,0 km/h (0 Bft) 100,00 %
25.04.2022 08:40 8,4 C 8,3 C 4,4 C 96 % 1009,7 hPa 0,0 l/m 0 min 0 min 46 W/m 0,0 km/h (0 Bft) 100,00 %
25.04.2022 08:42 8,4 C 8,3 C 4,4 C 96 % 1009,7 hPa 0,0 l/m 0 min 0 min 48 W/m 0,0 km/h (0 Bft) 100,00 %
25.04.2022 08:44 8,4 C 8,3 C 4,4 C 96 % 1009,7 hPa 0,0 l/m 0 min 0 min 49 W/m 0,0 km/h (0 Bft) 100,00 %
25.04.2022 08:46 8,4 C 8,3 C 4,4 C 96 % 1009,7 hPa 0,0 l/m 0 min 0 min 49 W/m 0,0 km/h (0 Bft) 100,00 %
25.04.2022 08:48 8,4 C 8,3 C 4,4 C 96 % 1009,8 hPa 0,0 l/m 0 min 0 min 49 W/m 0,0 km/h (0 Bft) 97,83 %
25.04.2022 08:50 8,4 C 8,3 C 4,4 C 96 % 1009,8 hPa 0,0 l/m 0 min 0 min 49 W/m 0,0 km/h (0 Bft) 100,00 %
25.04.2022 08:52 8,4 C 8,3 C 4,4 C 96 % 1009,8 hPa 0,0 l/m 0 min 0 min 48 W/m 0,0 km/h (0 Bft) 100,00 %
25.04.2022 08:54 8,4 C 8,3 C 4,4 C 96 % 1009,8 hPa 0,0 l/m 0 min 0 min 47 W/m 0,0 km/h (0 Bft) 100,00 %
25.04.2022 08:56 8,4 C 8,3 C 4,4 C 96 % 1009,8 hPa 0,0 l/m 0 min 0 min 46 W/m 0,0 km/h (0 Bft) 97,87 %
25.04.2022 08:58 8,4 C 8,3 C 4,4 C 96 % 1009,8 hPa 0,0 l/m 0 min 0 min 44 W/m 0,0 km/h (0 Bft) 93,62 %
25.04.2022 09:00 8,4 C 8,3 C 4,4 C 96 % 1009,8 hPa 0,0 l/m 0 min 0 min 44 W/m 0,0 km/h (0 Bft) 95,65 %
25.04.2022 09:02 8,4 C 8,3 C 4,4 C 96 % 1009,9 hPa 0,0 l/m 0 min 0 min 42 W/m 0,0 km/h (0 Bft) 93,62 %
25.04.2022 09:04 8,4 C 8,3 C 4,4 C 96 % 1009,9 hPa 0,0 l/m 0 min 0 min 42 W/m 0,0 km/h (0 Bft) 93,62 %
25.04.2022 09:06 8,4 C 8,3 C 4,4 C 96 % 1009,9 hPa 0,0 l/m 0 min 0 min 42 W/m 0,0 km/h (0 Bft) 93,62 %
25.04.2022 09:08 8,5 C 8,3 C 4,4 C 96 % 1009,9 hPa 0,0 l/m 0 min 0 min 40 W/m 0,0 km/h (0 Bft) 93,62 %
25.04.2022 09:10 8,5 C 8,3 C 4,4 C 96 % 1009,9 hPa 0,0 l/m 0 min 0 min 40 W/m 0,0 km/h (0 Bft) 93,62 %
25.04.2022 09:12 8,5 C 8,3 C 4,4 C 96 % 1010,0 hPa 0,0 l/m 0 min 0 min 40 W/m 0,0 km/h (0 Bft) 93,48 %
25.04.2022 09:14 8,5 C 8,3 C 4,4 C 96 % 1010,0 hPa 0,0 l/m 0 min 0 min 42 W/m 0,0 km/h (0 Bft) 93,62 %
25.04.2022 09:16 8,6 C 8,3 C 5,0 C 96 % 1010,0 hPa 0,0 l/m 0 min 0 min 43 W/m 0,0 km/h (0 Bft) 91,49 %
25.04.2022 09:18 8,6 C 8,3 C 5,0 C 96 % 1010,0 hPa 0,0 l/m 0 min 0 min 45 W/m 0,0 km/h (0 Bft) 93,62 %
25.04.2022 09:20 8,6 C 8,3 C 5,0 C 96 % 1010,0 hPa 0,0 l/m 0 min 0 min 47 W/m 0,0 km/h (0 Bft) 93,62 %
25.04.2022 09:22 8,6 C 8,3 C 5,0 C 96 % 1010,0 hPa 0,0 l/m 0 min 0 min 49 W/m 0,0 km/h (0 Bft) 91,49 %
25.04.2022 09:24 8,6 C 8,3 C 5,0 C 96 % 1010,0 hPa 0,0 l/m 0 min 0 min 49 W/m 0,0 km/h (0 Bft) 93,48 %
25.04.2022 09:26 8,7 C 8,9 C 5,0 C 96 % 1010,0 hPa 0,0 l/m 0 min 0 min 49 W/m 0,0 km/h (0 Bft) 93,62 %
25.04.2022 09:28 8,7 C 8,9 C 5,0 C 96 % 1009,9 hPa 0,0 l/m 0 min 0 min 51 W/m 0,0 km/h (0 Bft) 93,62 %
25.04.2022 09:30 8,7 C 8,9 C 5,0 C 96 % 1010,0 hPa 0,0 l/m 0 min 0 min 52 W/m 0,0 km/h (0 Bft) 91,49 %
25.04.2022 09:32 8,7 C 8,9 C 5,0 C 96 % 1010,0 hPa 0,0 l/m 0 min 0 min 53 W/m 0,0 km/h (0 Bft) 95,74 %
25.04.2022 09:34 8,7 C 8,9 C 5,0 C 96 % 1010,0 hPa 0,0 l/m 0 min 0 min 54 W/m 0,0 km/h (0 Bft) 97,87 %
25.04.2022 09:36 8,7 C 8,9 C 5,0 C 96 % 1010,0 hPa 0,0 l/m 0 min 0 min 55 W/m 0,0 km/h (0 Bft) 95,65 %
25.04.2022 09:38 8,7 C 8,9 C 5,0 C 96 % 1010,0 hPa 0,0 l/m 0 min 0 min 58 W/m 0,0 km/h (0 Bft) 95,74 %
25.04.2022 09:40 8,7 C 8,9 C 5,0 C 96 % 1010,0 hPa 0,0 l/m 0 min 0 min 62 W/m 0,0 km/h (0 Bft) 93,62 %
25.04.2022 09:42 8,7 C 8,9 C 5,0 C 96 % 1010,1 hPa 0,0 l/m 0 min 0 min 66 W/m 0,0 km/h (0 Bft) 95,74 %
25.04.2022 09:44 8,7 C 8,9 C 5,0 C 96 % 1010,1 hPa 0,0 l/m 0 min 0 min 67 W/m 0,0 km/h (0 Bft) 95,74 %
25.04.2022 09:46 8,8 C 8,9 C 5,0 C 96 % 1010,2 hPa 0,0 l/m 0 min 0 min 67 W/m 0,0 km/h (0 Bft) 95,74 %
25.04.2022 09:48 8,8 C 8,9 C 5,6 C 96 % 1010,1 hPa 0,0 l/m 0 min 0 min 67 W/m 0,0 km/h (0 Bft) 97,83 %
25.04.2022 09:50 8,8 C 8,9 C 5,6 C 96 % 1010,1 hPa 0,0 l/m 0 min 0 min 67 W/m 0,0 km/h (0 Bft) 97,87 %
25.04.2022 09:52 8,8 C 8,9 C 5,6 C 96 % 1010,2 hPa 0,0 l/m 0 min 0 min 67 W/m 0,0 km/h (0 Bft) 100,00 %
25.04.2022 09:54 8,8 C 8,9 C 5,6 C 96 % 1010,2 hPa 0,0 l/m 0 min 0 min 67 W/m 0,0 km/h (0 Bft) 100,00 %
25.04.2022 09:56 8,8 C 8,9 C 5,6 C 96 % 1010,3 hPa 0,0 l/m 0 min 0 min 69 W/m 0,0 km/h (0 Bft) 100,00 %
25.04.2022 09:58 8,8 C 8,9 C 5,6 C 96 % 1010,2 hPa 0,0 l/m 0 min 0 min 73 W/m 0,0 km/h (0 Bft) 97,83 %
25.04.2022 10:00 8,8 C 8,9 C 5,6 C 96 % 1010,3 hPa 0,0 l/m 0 min 0 min 79 W/m 0,0 km/h (0 Bft) 100,00 %
25.04.2022 10:02 8,8 C 8,9 C 5,6 C 96 % 1010,3 hPa 0,0 l/m 0 min 0 min 87 W/m 0,0 km/h (0 Bft) 97,87 %
25.04.2022 10:04 8,8 C 8,9 C 5,6 C 96 % 1010,3 hPa 0,0 l/m 0 min 0 min 97 W/m 0,0 km/h (0 Bft) 100,00 %
25.04.2022 10:06 8,8 C 8,9 C 5,6 C 96 % 1010,3 hPa 0,0 l/m 0 min 0 min 106 W/m 9,7 km/h (2 Bft) 97,87 %
25.04.2022 10:08 8,8 C 8,9 C 5,6 C 95 % 1010,3 hPa 0,0 l/m 0 min 0 min 109 W/m 3,2 km/h (1 Bft) 97,87 %
25.04.2022 10:10 8,8 C 8,9 C 5,6 C 95 % 1010,3 hPa 0,0 l/m 0 min 0 min 111 W/m 6,4 km/h (2 Bft) 100,00 %
25.04.2022 10:12 8,8 C 9,4 C 5,6 C 95 % 1010,4 hPa 0,0 l/m 0 min 0 min 113 W/m 6,4 km/h (2 Bft) 97,87 %
25.04.2022 10:14 8,8 C 9,4 C 5,6 C 95 % 1010,4 hPa 0,0 l/m 0 min 0 min 114 W/m 9,7 km/h (2 Bft) 100,00 %
25.04.2022 10:16 8,8 C 8,9 C 5,6 C 95 % 1010,4 hPa 0,0 l/m 0 min 0 min 114 W/m 12,9 km/h (3 Bft) 97,87 %
25.04.2022 10:18 8,8 C 8,9 C 5,6 C 95 % 1010,4 hPa 0,0 l/m 0 min 0 min 114 W/m 3,2 km/h (1 Bft) 100,00 %
25.04.2022 10:20 8,9 C 9,4 C 5,6 C 95 % 1010,4 hPa 0,0 l/m 0 min 0 min 114 W/m 0,0 km/h (0 Bft) 97,87 %
25.04.2022 10:22 8,9 C 9,4 C 5,6 C 95 % 1010,5 hPa 0,0 l/m 0 min 0 min 117 W/m 9,7 km/h (2 Bft) 100,00 %
25.04.2022 10:24 8,9 C 9,4 C 5,6 C 95 % 1010,5 hPa 0,0 l/m 0 min 0 min 119 W/m 6,4 km/h (2 Bft) 100,00 %
25.04.2022 10:26 9,0 C 9,4 C 5,6 C 95 % 1010,6 hPa 0,0 l/m 0 min 0 min 118 W/m 3,2 km/h (1 Bft) 100,00 %
25.04.2022 10:28 9,1 C 9,4 C 5,6 C 95 % 1010,6 hPa 0,0 l/m 0 min 0 min 111 W/m 6,4 km/h (2 Bft) 97,87 %
25.04.2022 10:30 9,1 C 9,4 C 5,6 C 95 % 1010,6 hPa 0,0 l/m 0 min 0 min 104 W/m 6,4 km/h (2 Bft) 100,00 %
25.04.2022 10:32 9,1 C 9,4 C 5,6 C 94 % 1010,6 hPa 0,0 l/m 0 min 0 min 100 W/m 3,2 km/h (1 Bft) 100,00 %
25.04.2022 10:34 9,2 C 9,4 C 5,6 C 94 % 1010,6 hPa 0,0 l/m 0 min 0 min 102 W/m 6,4 km/h (2 Bft) 100,00 %
25.04.2022 10:36 9,2 C 9,4 C 5,6 C 94 % 1010,7 hPa 0,0 l/m 0 min 0 min 105 W/m 9,7 km/h (2 Bft) 100,00 %
25.04.2022 10:38 9,2 C 9,4 C 5,6 C 94 % 1010,7 hPa 0,0 l/m 0 min 0 min 107 W/m 3,2 km/h (1 Bft) 100,00 %
25.04.2022 10:40 9,3 C 9,4 C 5,6 C 94 % 1010,7 hPa 0,0 l/m 0 min 0 min 106 W/m 3,2 km/h (1 Bft) 95,74 %
25.04.2022 10:42 9,3 C 9,4 C 5,6 C 94 % 1010,7 hPa 0,0 l/m 0 min 0 min 105 W/m 9,7 km/h (2 Bft) 100,00 %
25.04.2022 10:44 9,3 C 9,4 C 5,6 C 94 % 1010,8 hPa 0,0 l/m 0 min 0 min 104 W/m 3,2 km/h (1 Bft) 100,00 %
25.04.2022 10:46 9,3 C 9,4 C 5,6 C 94 % 1010,8 hPa 0,0 l/m 0 min 0 min 111 W/m 6,4 km/h (2 Bft) 100,00 %
25.04.2022 10:48 9,4 C 9,4 C 6,1 C 94 % 1010,8 hPa 0,0 l/m 0 min 0 min 123 W/m 9,7 km/h (2 Bft) 97,87 %
25.04.2022 10:50 9,3 C 9,4 C 5,6 C 94 % 1010,8 hPa 0,0 l/m 0 min 0 min 135 W/m 9,7 km/h (2 Bft) 97,87 %
25.04.2022 10:52 9,4 C 9,4 C 6,1 C 94 % 1010,8 hPa 0,0 l/m 0 min 0 min 145 W/m 9,7 km/h (2 Bft) 97,87 %
25.04.2022 10:54 9,3 C 9,4 C 6,1 C 94 % 1010,8 hPa 0,0 l/m 0 min 0 min 158 W/m 12,9 km/h (3 Bft) 97,87 %
25.04.2022 10:56 9,4 C 9,4 C 6,1 C 94 % 1010,9 hPa 0,0 l/m 0 min 0 min 162 W/m 9,7 km/h (2 Bft) 97,83 %
25.04.2022 10:58 9,4 C 9,4 C 6,1 C 94 % 1010,9 hPa 0,0 l/m 0 min 0 min 163 W/m 9,7 km/h (2 Bft) 97,87 %
25.04.2022 11:00 9,4 C 10,0 C 6,1 C 94 % 1010,9 hPa 0,0 l/m 0 min 0 min 175 W/m 9,7 km/h (2 Bft) 95,74 %
25.04.2022 11:02 9,4 C 10,0 C 6,1 C 94 % 1010,9 hPa 0,0 l/m 0 min 0 min 195 W/m 9,7 km/h (2 Bft) 95,74 %
25.04.2022 11:04 9,4 C 10,0 C 6,1 C 94 % 1010,9 hPa 0,0 l/m 0 min 0 min 211 W/m 16,1 km/h (3 Bft) 97,87 %
25.04.2022 11:06 9,4 C 10,0 C 6,1 C 94 % 1011,0 hPa 0,0 l/m 0 min 0 min 217 W/m 12,9 km/h (3 Bft) 97,87 %
25.04.2022 11:08 9,4 C 10,0 C 6,7 C 94 % 1011,0 hPa 0,0 l/m 0 min 0 min 225 W/m 12,9 km/h (3 Bft) 97,62 %
25.04.2022 11:10 9,5 C 10,6 C 6,7 C 94 % 1011,0 hPa 0,0 l/m 0 min 0 min 258 W/m 6,4 km/h (2 Bft) 97,83 %
25.04.2022 11:12 9,6 C 10,6 C 6,7 C 94 % 1011,0 hPa 0,0 l/m 0 min 0 min 285 W/m 12,9 km/h (3 Bft) 97,87 %
25.04.2022 11:14 9,6 C 10,6 C 6,7 C 94 % 1011,0 hPa 0,0 l/m 0 min 0 min 305 W/m 12,9 km/h (3 Bft) 97,87 %
25.04.2022 11:16 9,7 C 11,1 C 6,7 C 94 % 1011,0 hPa 0,0 l/m 0 min 0 min 315 W/m 9,7 km/h (2 Bft) 95,74 %
25.04.2022 11:18 9,7 C 10,6 C 6,7 C 94 % 1011,1 hPa 0,0 l/m 0 min 0 min 319 W/m 16,1 km/h (3 Bft) 97,87 %
25.04.2022 11:20 9,7 C 11,1 C 6,7 C 94 % 1011,2 hPa 0,0 l/m 0 min 2 min 299 W/m 9,7 km/h (2 Bft) 97,87 %
25.04.2022 11:22 9,8 C 11,1 C 6,7 C 94 % 1011,1 hPa 0,0 l/m 0 min 0 min 328 W/m 16,1 km/h (3 Bft) 97,83 %
25.04.2022 11:24 9,8 C 11,1 C 7,2 C 94 % 1011,1 hPa 0,0 l/m 0 min 0 min 328 W/m 16,1 km/h (3 Bft) 97,87 %
25.04.2022 11:26 9,8 C 11,1 C 7,2 C 94 % 1011,2 hPa 0,0 l/m 0 min 0 min 319 W/m 12,9 km/h (3 Bft) 97,87 %
25.04.2022 11:28 9,8 C 11,1 C 7,2 C 94 % 1011,2 hPa 0,0 l/m 0 min 0 min 325 W/m 12,9 km/h (3 Bft) 100,00 %
25.04.2022 11:30 9,9 C 10,6 C 7,2 C 94 % 1011,2 hPa 0,0 l/m 0 min 0 min 309 W/m 16,1 km/h (3 Bft) 100,00 %
25.04.2022 11:32 9,9 C 10,6 C 6,7 C 94 % 1011,2 hPa 0,0 l/m 0 min 0 min 283 W/m 16,1 km/h (3 Bft) 100,00 %
25.04.2022 11:34 9,9 C 10,6 C 6,7 C 94 % 1011,2 hPa 0,0 l/m 0 min 0 min 275 W/m 9,7 km/h (2 Bft) 97,87 %
25.04.2022 11:36 9,9 C 10,6 C 6,7 C 94 % 1011,2 hPa 0,0 l/m 0 min 0 min 265 W/m 16,1 km/h (3 Bft) 97,87 %
25.04.2022 11:38 9,9 C 10,6 C 6,7 C 94 % 1011,2 hPa 0,0 l/m 0 min 0 min 249 W/m 9,7 km/h (2 Bft) 95,74 %
25.04.2022 11:40 9,9 C 10,6 C 6,7 C 94 % 1011,2 hPa 0,0 l/m 0 min 0 min 244 W/m 12,9 km/h (3 Bft) 95,74 %
25.04.2022 11:42 9,9 C 10,6 C 6,7 C 94 % 1011,2 hPa 0,0 l/m 0 min 2 min 249 W/m 9,7 km/h (2 Bft) 97,87 %
25.04.2022 11:44 9,9 C 11,1 C 6,7 C 94 % 1011,1 hPa 0,0 l/m 0 min 2 min 258 W/m 12,9 km/h (3 Bft) 97,83 %
25.04.2022 11:46 9,9 C 11,1 C 6,7 C 94 % 1011,2 hPa 0,0 l/m 0 min 2 min 266 W/m 9,7 km/h (2 Bft) 97,87 %
25.04.2022 11:48 9,9 C 11,1 C 6,7 C 94 % 1011,2 hPa 0,2 l/m 0 min 0 min 267 W/m 12,9 km/h (3 Bft) 95,74 %
25.04.2022 11:50 9,8 C 10,6 C 6,7 C 94 % 1011,2 hPa 0,0 l/m 0 min 2 min 270 W/m 16,1 km/h (3 Bft) 97,87 %
25.04.2022 11:52 9,8 C 10,6 C 6,7 C 93 % 1011,2 hPa 0,0 l/m 0 min 0 min 284 W/m 12,9 km/h (3 Bft) 97,87 %
25.04.2022 11:54 9,9 C 11,1 C 6,7 C 94 % 1011,2 hPa 0,0 l/m 0 min 2 min 298 W/m 9,7 km/h (2 Bft) 97,87 %
25.04.2022 11:56 9,9 C 11,1 C 6,7 C 94 % 1011,3 hPa 0,0 l/m 0 min 0 min 309 W/m 6,4 km/h (2 Bft) 97,83 %
25.04.2022 11:58 9,9 C 11,1 C 6,7 C 94 % 1011,2 hPa 0,0 l/m 0 min 0 min 312 W/m 6,4 km/h (2 Bft) 97,87 %
25.04.2022 12:00 9,9 C 11,7 C 6,7 C 94 % 1011,3 hPa 0,0 l/m 0 min 0 min 320 W/m 9,7 km/h (2 Bft) 97,87 %
25.04.2022 12:02 10,0 C 11,7 C 6,7 C 94 % 1011,3 hPa 0,0 l/m 0 min 0 min 331 W/m 9,7 km/h (2 Bft) 93,62 %
25.04.2022 12:04 10,0 C 11,7 C 6,7 C 94 % 1011,3 hPa 0,0 l/m 0 min 0 min 339 W/m 12,9 km/h (3 Bft) 95,74 %
25.04.2022 12:08 10,1 C 12,2 C 7,2 C 94 % 1011,3 hPa 0,0 l/m 4 min 0 min 369 W/m 12,9 km/h (3 Bft) 95,70 %
25.04.2022 12:10 10,1 C 12,8 C 7,8 C 94 % 1011,3 hPa 0,0 l/m 2 min 0 min 479 W/m 9,7 km/h (2 Bft) 95,74 %
25.04.2022 12:12 10,2 C 13,9 C 8,9 C 94 % 1011,3 hPa 0,0 l/m 2 min 0 min 781 W/m 9,7 km/h (2 Bft) 95,74 %
25.04.2022 12:14 10,4 C 15,0 C 10,0 C 94 % 1011,3 hPa 0,0 l/m 2 min 0 min 739 W/m 9,7 km/h (2 Bft) 95,74 %
25.04.2022 12:16 10,6 C 15,0 C 10,6 C 94 % 1011,3 hPa 0,0 l/m 2 min 0 min 737 W/m 12,9 km/h (3 Bft) 95,74 %
25.04.2022 12:18 10,8 C 15,6 C 10,6 C 94 % 1011,3 hPa 0,0 l/m 2 min 0 min 737 W/m 9,7 km/h (2 Bft) 91,49 %
25.04.2022 12:20 11,0 C 16,1 C 11,1 C 95 % 1011,4 hPa 0,0 l/m 2 min 0 min 606 W/m 6,4 km/h (2 Bft) 95,65 %
25.04.2022 12:22 11,2 C 16,1 C 11,1 C 94 % 1011,4 hPa 0,0 l/m 2 min 0 min 603 W/m 9,7 km/h (2 Bft) 97,87 %
25.04.2022 12:24 11,3 C 16,1 C 11,1 C 94 % 1011,4 hPa 0,0 l/m 2 min 0 min 775 W/m 16,1 km/h (3 Bft) 97,87 %
25.04.2022 12:26 11,5 C 16,1 C 12,2 C 94 % 1011,4 hPa 0,0 l/m 2 min 0 min 874 W/m 6,4 km/h (2 Bft) 95,74 %
25.04.2022 12:28 11,7 C 16,7 C 13,3 C 93 % 1011,4 hPa 0,0 l/m 2 min 0 min 1032 W/m 12,9 km/h (3 Bft) 97,87 %
25.04.2022 12:30 11,9 C 16,1 C 13,3 C 93 % 1011,4 hPa 0,0 l/m 2 min 0 min 1016 W/m 19,3 km/h (3 Bft) 97,87 %
25.04.2022 12:32 12,0 C 16,1 C 12,8 C 93 % 1011,4 hPa 0,0 l/m 2 min 0 min 1016 W/m 12,9 km/h (3 Bft) 95,65 %
25.04.2022 12:34 12,1 C 16,1 C 12,2 C 91 % 1011,5 hPa 0,0 l/m 2 min 0 min 850 W/m 16,1 km/h (3 Bft) 97,87 %
25.04.2022 12:36 12,2 C 16,1 C 12,2 C 91 % 1011,5 hPa 0,0 l/m 2 min 0 min 584 W/m 9,7 km/h (2 Bft) 95,74 %
25.04.2022 12:38 12,2 C 16,7 C 12,8 C 90 % 1011,5 hPa 0,0 l/m 2 min 0 min 778 W/m 12,9 km/h (3 Bft) 97,87 %
25.04.2022 12:40 12,3 C 16,7 C 12,8 C 90 % 1011,5 hPa 0,0 l/m 2 min 0 min 745 W/m 12,9 km/h (3 Bft) 97,87 %
25.04.2022 12:42 12,3 C 16,7 C 13,9 C 88 % 1011,5 hPa 0,0 l/m 2 min 0 min 925 W/m 6,4 km/h (2 Bft) 97,83 %
25.04.2022 12:44 12,3 C 16,1 C 12,8 C 88 % 1011,4 hPa 0,0 l/m 2 min 0 min 839 W/m 12,9 km/h (3 Bft) 93,62 %
25.04.2022 12:46 12,3 C 15,0 C 11,1 C 87 % 1011,5 hPa 0,0 l/m 0 min 0 min 358 W/m 16,1 km/h (3 Bft) 100,00 %
25.04.2022 12:48 12,2 C 15,0 C 10,6 C 87 % 1011,4 hPa 0,0 l/m 2 min 0 min 439 W/m 12,9 km/h (3 Bft) 97,87 %
25.04.2022 12:50 12,3 C 15,0 C 10,6 C 87 % 1011,5 hPa 0,0 l/m 2 min 0 min 442 W/m 9,7 km/h (2 Bft) 93,62 %
25.04.2022 12:52 12,3 C 15,0 C 10,6 C 86 % 1011,4 hPa 0,0 l/m 2 min 0 min 494 W/m 6,4 km/h (2 Bft) 97,87 %
25.04.2022 12:54 12,3 C 15,0 C 11,1 C 85 % 1011,5 hPa 0,0 l/m 2 min 0 min 814 W/m 9,7 km/h (2 Bft) 97,83 %
25.04.2022 12:56 12,3 C 15,0 C 10,6 C 85 % 1011,4 hPa 0,0 l/m 2 min 0 min 800 W/m 12,9 km/h (3 Bft) 97,87 %
25.04.2022 12:58 12,4 C 15,0 C 10,6 C 85 % 1011,5 hPa 0,0 l/m 2 min 0 min 545 W/m 9,7 km/h (2 Bft) 95,74 %
25.04.2022 13:00 12,4 C 15,0 C 10,6 C 84 % 1011,5 hPa 0,0 l/m 2 min 0 min 587 W/m 9,7 km/h (2 Bft) 97,87 %
25.04.2022 13:02 12,6 C 15,6 C 10,6 C 84 % 1011,5 hPa 0,0 l/m 2 min 0 min 582 W/m 9,7 km/h (2 Bft) 95,74 %
25.04.2022 13:04 12,6 C 15,6 C 10,6 C 84 % 1011,4 hPa 0,0 l/m 2 min 0 min 491 W/m 9,7 km/h (2 Bft) 97,87 %
25.04.2022 13:06 12,6 C 15,6 C 10,0 C 84 % 1011,5 hPa 0,0 l/m 2 min 0 min 624 W/m 12,9 km/h (3 Bft) 97,83 %
25.04.2022 13:08 12,6 C 15,6 C 10,0 C 83 % 1011,5 hPa 0,0 l/m 2 min 0 min 919 W/m 9,7 km/h (2 Bft) 97,87 %
25.04.2022 13:10 12,8 C 16,7 C 10,6 C 83 % 1011,5 hPa 0,0 l/m 2 min 0 min 957 W/m 16,1 km/h (3 Bft) 97,87 %
25.04.2022 13:12 12,8 C 16,7 C 10,6 C 83 % 1011,5 hPa 0,0 l/m 2 min 0 min 1014 W/m 6,4 km/h (2 Bft) 97,87 %
25.04.2022 13:14 12,9 C 17,8 C 10,6 C 83 % 1011,4 hPa 0,0 l/m 2 min 0 min 830 W/m 12,9 km/h (3 Bft) 97,87 %
25.04.2022 13:16 13,1 C 17,2 C 10,6 C 83 % 1011,5 hPa 0,0 l/m 2 min 0 min 655 W/m 9,7 km/h (2 Bft) 97,87 %
25.04.2022 13:18 13,1 C 16,7 C 10,6 C 82 % 1011,5 hPa 0,0 l/m 0 min 0 min 366 W/m 9,7 km/h (2 Bft) 97,83 %
25.04.2022 13:20 13,0 C 15,6 C 10,6 C 81 % 1011,5 hPa 0,0 l/m 0 min 0 min 334 W/m 9,7 km/h (2 Bft) 97,87 %
25.04.2022 13:22 12,9 C 15,6 C 10,6 C 81 % 1011,5 hPa 0,0 l/m 2 min 0 min 403 W/m 12,9 km/h (3 Bft) 97,87 %
25.04.2022 13:24 12,9 C 16,1 C 10,6 C 81 % 1011,5 hPa 0,0 l/m 2 min 0 min 669 W/m 12,9 km/h (3 Bft) 97,87 %
25.04.2022 13:26 12,9 C 16,1 C 10,6 C 80 % 1011,5 hPa 0,0 l/m 2 min 0 min 606 W/m 9,7 km/h (2 Bft) 97,87 %
25.04.2022 13:28 12,9 C 16,1 C 10,6 C 79 % 1011,5 hPa 0,0 l/m 2 min 0 min 495 W/m 12,9 km/h (3 Bft) 100,00 %
25.04.2022 13:30 12,9 C 16,1 C 10,6 C 79 % 1011,6 hPa 0,0 l/m 2 min 0 min 503 W/m 16,1 km/h (3 Bft) 100,00 %
25.04.2022 13:32 13,1 C 16,1 C 10,6 C 80 % 1011,6 hPa 0,0 l/m 2 min 0 min 503 W/m 6,4 km/h (2 Bft) 97,87 %
25.04.2022 13:34 13,1 C 16,1 C 10,6 C 80 % 1011,6 hPa 0,0 l/m 2 min 0 min 541 W/m 12,9 km/h (3 Bft) 97,87 %
25.04.2022 13:36 13,2 C 16,7 C 11,1 C 80 % 1011,6 hPa 0,0 l/m 2 min 0 min 625 W/m 9,7 km/h (2 Bft) 100,00 %
25.04.2022 13:38 13,4 C 18,3 C 12,8 C 80 % 1011,6 hPa 0,0 l/m 2 min 0 min 1024 W/m 12,9 km/h (3 Bft) 97,87 %
25.04.2022 13:40 13,6 C 18,3 C 13,9 C 79 % 1011,6 hPa 0,0 l/m 2 min 0 min 1014 W/m 12,9 km/h (3 Bft) 100,00 %
25.04.2022 13:42 13,7 C 18,3 C 13,9 C 79 % 1011,6 hPa 0,0 l/m 2 min 0 min 968 W/m 22,5 km/h (4 Bft) 100,00 %
25.04.2022 13:44 13,6 C 18,3 C 12,8 C 76 % 1011,6 hPa 0,0 l/m 2 min 0 min 967 W/m 16,1 km/h (3 Bft) 97,87 %
25.04.2022 13:46 13,6 C 17,8 C 12,8 C 76 % 1011,7 hPa 0,0 l/m 2 min 0 min 826 W/m 12,9 km/h (3 Bft) 100,00 %
25.04.2022 13:48 13,7 C 16,7 C 11,7 C 77 % 1011,6 hPa 0,0 l/m 0 min 0 min 366 W/m 12,9 km/h (3 Bft) 100,00 %
25.04.2022 13:50 13,7 C 15,6 C 11,1 C 76 % 1011,6 hPa 0,0 l/m 0 min 0 min 359 W/m 16,1 km/h (3 Bft) 100,00 %
25.04.2022 13:52 13,5 C 14,4 C 10,6 C 76 % 1011,7 hPa 0,0 l/m 0 min 0 min 345 W/m 19,3 km/h (3 Bft) 100,00 %
25.04.2022 13:54 13,4 C 14,4 C 10,6 C 76 % 1011,7 hPa 0,0 l/m 0 min 0 min 296 W/m 9,7 km/h (2 Bft) 100,00 %
25.04.2022 13:56 13,3 C 14,4 C 10,0 C 76 % 1011,7 hPa 0,0 l/m 0 min 0 min 287 W/m 9,7 km/h (2 Bft) 100,00 %
25.04.2022 13:58 13,3 C 14,4 C 10,0 C 76 % 1011,8 hPa 0,0 l/m 0 min 0 min 313 W/m 6,4 km/h (2 Bft) 100,00 %
25.04.2022 14:00 13,2 C 15,0 C 10,0 C 77 % 1011,8 hPa 0,0 l/m 0 min 0 min 348 W/m 12,9 km/h (3 Bft) 97,87 %
25.04.2022 14:02 13,2 C 15,0 C 10,6 C 77 % 1011,8 hPa 0,0 l/m 0 min 0 min 364 W/m 12,9 km/h (3 Bft) 100,00 %
25.04.2022 14:04 13,2 C 14,4 C 10,0 C 77 % 1011,8 hPa 0,0 l/m 2 min 0 min 394 W/m 12,9 km/h (3 Bft) 97,83 %
25.04.2022 14:06 13,2 C 15,0 C 10,0 C 76 % 1011,8 hPa 0,0 l/m 2 min 0 min 479 W/m 6,4 km/h (2 Bft) 97,87 %
25.04.2022 14:08 13,2 C 16,1 C 10,6 C 76 % 1011,8 hPa 0,0 l/m 2 min 0 min 573 W/m 6,4 km/h (2 Bft) 97,87 %
25.04.2022 14:10 13,3 C 16,7 C 10,6 C 77 % 1011,8 hPa 0,0 l/m 2 min 0 min 569 W/m 6,4 km/h (2 Bft) 98,00 %
25.04.2022 14:12 13,4 C 16,1 C 10,6 C 75 % 1011,8 hPa 0,0 l/m 2 min 0 min 400 W/m 12,9 km/h (3 Bft) 100,00 %
25.04.2022 14:14 13,3 C 16,1 C 10,0 C 74 % 1011,9 hPa 0,0 l/m 2 min 0 min 381 W/m 9,7 km/h (2 Bft) 100,00 %
25.04.2022 14:16 13,3 C 16,1 C 10,6 C 74 % 1011,9 hPa 0,0 l/m 2 min 0 min 414 W/m 12,9 km/h (3 Bft) 100,00 %
25.04.2022 14:18 13,4 C 16,1 C 10,6 C 75 % 1011,8 hPa 0,0 l/m 2 min 0 min 544 W/m 19,3 km/h (3 Bft) 100,00 %
25.04.2022 14:20 13,5 C 16,7 C 11,1 C 77 % 1011,9 hPa 0,0 l/m 2 min 0 min 570 W/m 16,1 km/h (3 Bft) 100,00 %
25.04.2022 14:22 13,6 C 16,1 C 10,6 C 77 % 1011,9 hPa 0,0 l/m 2 min 0 min 879 W/m 16,1 km/h (3 Bft) 100,00 %
25.04.2022 14:24 13,6 C 16,1 C 10,6 C 77 % 1011,9 hPa 0,0 l/m 0 min 0 min 310 W/m 12,9 km/h (3 Bft) 100,00 %
25.04.2022 14:26 13,6 C 15,6 C 10,0 C 77 % 1011,9 hPa 0,0 l/m 0 min 0 min 275 W/m 12,9 km/h (3 Bft) 100,00 %
25.04.2022 14:28 13,4 C 15,0 C 10,0 C 77 % 1011,9 hPa 0,0 l/m 0 min 0 min 256 W/m 19,3 km/h (3 Bft) 100,00 %
25.04.2022 14:30 13,3 C 14,4 C 10,0 C 77 % 1011,9 hPa 0,0 l/m 0 min 0 min 238 W/m 12,9 km/h (3 Bft) 100,00 %
25.04.2022 14:32 13,3 C 14,4 C 10,0 C 78 % 1011,9 hPa 0,0 l/m 0 min 0 min 223 W/m 9,7 km/h (2 Bft) 100,00 %
25.04.2022 14:34 13,2 C 13,9 C 9,4 C 78 % 1011,9 hPa 0,0 l/m 0 min 0 min 215 W/m 12,9 km/h (3 Bft) 100,00 %
25.04.2022 14:36 13,1 C 13,3 C 9,4 C 78 % 1011,9 hPa 0,0 l/m 0 min 0 min 214 W/m 16,1 km/h (3 Bft) 97,87 %
25.04.2022 14:38 12,9 C 13,3 C 9,4 C 78 % 1011,9 hPa 0,0 l/m 0 min 0 min 203 W/m 16,1 km/h (3 Bft) 97,87 %
25.04.2022 14:40 12,8 C 13,3 C 9,4 C 78 % 1011,8 hPa 0,0 l/m 0 min 0 min 210 W/m 12,9 km/h (3 Bft) 97,87 %
25.04.2022 14:42 12,8 C 13,3 C 8,9 C 79 % 1011,9 hPa 0,0 l/m 0 min 0 min 236 W/m 19,3 km/h (3 Bft) 95,65 %
25.04.2022 14:44 12,7 C 13,9 C 8,9 C 79 % 1011,8 hPa 0,0 l/m 0 min 0 min 283 W/m 9,7 km/h (2 Bft) 97,87 %
25.04.2022 14:46 12,7 C 15,0 C 9,4 C 79 % 1011,8 hPa 0,0 l/m 2 min 0 min 572 W/m 16,1 km/h (3 Bft) 95,74 %
25.04.2022 14:48 12,8 C 16,1 C 9,4 C 80 % 1011,8 hPa 0,0 l/m 2 min 0 min 836 W/m 9,7 km/h (2 Bft) 97,87 %
25.04.2022 14:50 13,0 C 16,7 C 10,0 C 80 % 1011,8 hPa 0,0 l/m 2 min 0 min 803 W/m 12,9 km/h (3 Bft) 93,62 %
25.04.2022 14:52 13,2 C 17,2 C 10,0 C 79 % 1011,8 hPa 0,0 l/m 2 min 0 min 810 W/m 19,3 km/h (3 Bft) 97,83 %
25.04.2022 14:54 13,3 C 17,8 C 10,0 C 78 % 1011,8 hPa 0,0 l/m 2 min 0 min 812 W/m 16,1 km/h (3 Bft) 95,74 %
25.04.2022 14:56 13,5 C 17,8 C 10,0 C 77 % 1011,8 hPa 0,0 l/m 2 min 0 min 811 W/m 16,1 km/h (3 Bft) 95,74 %
25.04.2022 14:58 13,6 C 18,3 C 10,6 C 76 % 1011,8 hPa 0,0 l/m 2 min 0 min 816 W/m 16,1 km/h (3 Bft) 95,74 %
25.04.2022 15:00 13,8 C 18,9 C 10,6 C 76 % 1011,8 hPa 0,0 l/m 2 min 0 min 841 W/m 12,9 km/h (3 Bft) 93,62 %
25.04.2022 15:02 13,9 C 18,3 C 10,6 C 75 % 1011,7 hPa 0,0 l/m 2 min 0 min 833 W/m 12,9 km/h (3 Bft) 93,62 %
25.04.2022 15:04 14,1 C 18,9 C 10,6 C 75 % 1011,8 hPa 0,0 l/m 2 min 0 min 846 W/m 9,7 km/h (2 Bft) 95,65 %
25.04.2022 15:06 14,3 C 19,4 C 10,6 C 75 % 1011,7 hPa 0,0 l/m 2 min 0 min 852 W/m 16,1 km/h (3 Bft) 93,62 %
25.04.2022 15:08 14,4 C 18,9 C 10,6 C 75 % 1011,8 hPa 0,0 l/m 2 min 0 min 893 W/m 16,1 km/h (3 Bft) 95,74 %
25.04.2022 15:10 14,6 C 18,3 C 11,1 C 75 % 1011,8 hPa 0,0 l/m 2 min 0 min 912 W/m 16,1 km/h (3 Bft) 93,62 %
25.04.2022 15:12 14,4 C 17,2 C 10,6 C 73 % 1011,8 hPa 0,0 l/m 2 min 0 min 710 W/m 9,7 km/h (2 Bft) 93,62 %
25.04.2022 15:14 14,3 C 16,1 C 10,6 C 72 % 1011,8 hPa 0,0 l/m 0 min 0 min 210 W/m 9,7 km/h (2 Bft) 95,65 %
25.04.2022 15:16 14,3 C 15,6 C 10,0 C 72 % 1011,8 hPa 0,0 l/m 0 min 0 min 217 W/m 9,7 km/h (2 Bft) 95,74 %
25.04.2022 15:18 14,2 C 15,0 C 10,0 C 73 % 1011,8 hPa 0,0 l/m 0 min 0 min 217 W/m 12,9 km/h (3 Bft) 93,62 %
25.04.2022 15:20 14,1 C 15,0 C 10,0 C 73 % 1011,8 hPa 0,0 l/m 0 min 0 min 224 W/m 9,7 km/h (2 Bft) 95,74 %
25.04.2022 15:22 14,1 C 14,4 C 10,0 C 73 % 1011,8 hPa 0,0 l/m 0 min 0 min 272 W/m 19,3 km/h (3 Bft) 93,62 %
25.04.2022 15:24 14,1 C 15,0 C 10,0 C 74 % 1011,8 hPa 0,0 l/m 0 min 0 min 335 W/m 9,7 km/h (2 Bft) 93,62 %
25.04.2022 15:26 14,0 C 15,0 C 10,6 C 75 % 1011,8 hPa 0,0 l/m 2 min 0 min 356 W/m 12,9 km/h (3 Bft) 93,48 %
25.04.2022 15:28 14,0 C 15,0 C 10,6 C 75 % 1011,9 hPa 0,0 l/m 0 min 0 min 344 W/m 12,9 km/h (3 Bft) 95,74 %
25.04.2022 15:30 13,9 C 15,0 C 10,0 C 75 % 1011,8 hPa 0,0 l/m 0 min 0 min 275 W/m 12,9 km/h (3 Bft) 93,62 %
25.04.2022 15:32 13,8 C 14,4 C 10,0 C 74 % 1011,9 hPa 0,0 l/m 0 min 0 min 247 W/m 16,1 km/h (3 Bft) 95,74 %
25.04.2022 15:34 13,8 C 14,4 C 10,0 C 74 % 1011,9 hPa 0,0 l/m 0 min 0 min 244 W/m 9,7 km/h (2 Bft) 93,62 %
25.04.2022 15:36 13,7 C 14,4 C 10,0 C 74 % 1011,9 hPa 0,0 l/m 0 min 0 min 236 W/m 12,9 km/h (3 Bft) 95,74 %
25.04.2022 15:38 13,7 C 15,0 C 10,0 C 74 % 1011,9 hPa 0,0 l/m 0 min 0 min 245 W/m 6,4 km/h (2 Bft) 97,83 %
25.04.2022 15:40 13,6 C 15,0 C 10,0 C 74 % 1011,9 hPa 0,0 l/m 0 min 0 min 252 W/m 9,7 km/h (2 Bft) 97,87 %
25.04.2022 15:42 13,6 C 15,0 C 10,0 C 74 % 1011,8 hPa 0,0 l/m 0 min 0 min 274 W/m 9,7 km/h (2 Bft) 97,87 %
25.04.2022 15:44 13,6 C 15,0 C 10,0 C 74 % 1011,8 hPa 0,0 l/m 0 min 0 min 303 W/m 6,4 km/h (2 Bft) 93,62 %
25.04.2022 15:46 13,6 C 15,6 C 10,0 C 74 % 1011,9 hPa 0,0 l/m 0 min 0 min 317 W/m 12,9 km/h (3 Bft) 97,87 %
25.04.2022 15:48 13,7 C 16,1 C 10,6 C 74 % 1011,8 hPa 0,0 l/m 2 min 0 min 469 W/m 12,9 km/h (3 Bft) 97,87 %
25.04.2022 15:50 13,8 C 17,8 C 10,6 C 75 % 1011,8 hPa 0,0 l/m 2 min 0 min 813 W/m 12,9 km/h (3 Bft) 97,83 %
25.04.2022 15:52 13,9 C 18,9 C 10,6 C 76 % 1011,8 hPa 0,0 l/m 2 min 0 min 790 W/m 16,1 km/h (3 Bft) 97,87 %
25.04.2022 15:54 14,2 C 18,9 C 11,1 C 75 % 1011,8 hPa 0,0 l/m 2 min 0 min 761 W/m 12,9 km/h (3 Bft) 97,87 %
25.04.2022 15:56 14,3 C 18,9 C 11,1 C 75 % 1011,8 hPa 0,0 l/m 2 min 0 min 734 W/m 9,7 km/h (2 Bft) 97,87 %
25.04.2022 15:58 14,3 C 18,9 C 10,6 C 74 % 1011,8 hPa 0,0 l/m 2 min 0 min 749 W/m 16,1 km/h (3 Bft) 97,87 %
25.04.2022 16:00 14,3 C 20,0 C 11,1 C 73 % 1011,8 hPa 0,0 l/m 2 min 0 min 773 W/m 16,1 km/h (3 Bft) 97,87 %
25.04.2022 16:02 14,5 C 20,6 C 11,1 C 74 % 1011,9 hPa 0,0 l/m 2 min 0 min 737 W/m 19,3 km/h (3 Bft) 97,83 %
25.04.2022 16:04 14,7 C 20,6 C 11,1 C 74 % 1011,8 hPa 0,0 l/m 2 min 0 min 707 W/m 12,9 km/h (3 Bft) 95,74 %
25.04.2022 16:06 14,8 C 19,4 C 11,1 C 74 % 1011,9 hPa 0,0 l/m 2 min 0 min 568 W/m 16,1 km/h (3 Bft) 97,87 %
25.04.2022 16:08 14,8 C 19,4 C 11,1 C 72 % 1011,9 hPa 0,0 l/m 2 min 0 min 416 W/m 9,7 km/h (2 Bft) 95,74 %
25.04.2022 16:10 14,9 C 20,0 C 11,1 C 73 % 1011,9 hPa 0,0 l/m 2 min 0 min 752 W/m 9,7 km/h (2 Bft) 97,87 %
25.04.2022 16:12 15,0 C 20,0 C 11,7 C 73 % 1011,9 hPa 0,0 l/m 2 min 0 min 753 W/m 9,7 km/h (2 Bft) 100,00 %
25.04.2022 16:14 15,1 C 18,9 C 11,7 C 72 % 1011,9 hPa 0,0 l/m 2 min 0 min 507 W/m 19,3 km/h (3 Bft) 100,00 %
25.04.2022 16:16 15,1 C 17,2 C 11,1 C 72 % 1011,9 hPa 0,0 l/m 0 min 0 min 224 W/m 9,7 km/h (2 Bft) 100,00 %
25.04.2022 16:18 15,0 C 16,7 C 10,6 C 72 % 1011,9 hPa 0,0 l/m 0 min 0 min 194 W/m 6,4 km/h (2 Bft) 100,00 %
25.04.2022 16:20 14,9 C 15,6 C 10,6 C 71 % 1011,9 hPa 0,0 l/m 0 min 0 min 178 W/m 9,7 km/h (2 Bft) 100,00 %
25.04.2022 16:22 14,7 C 15,0 C 10,6 C 71 % 1011,9 hPa 0,0 l/m 0 min 0 min 165 W/m 12,9 km/h (3 Bft) 100,00 %
25.04.2022 16:24 14,6 C 14,4 C 10,6 C 70 % 1011,9 hPa 0,0 l/m 0 min 0 min 159 W/m 12,9 km/h (3 Bft) 100,00 %
25.04.2022 16:26 14,4 C 14,4 C 10,0 C 70 % 1011,8 hPa 0,0 l/m 0 min 0 min 169 W/m 3,2 km/h (1 Bft) 100,00 %
25.04.2022 16:28 14,3 C 14,4 C 10,0 C 71 % 1011,9 hPa 0,0 l/m 0 min 0 min 175 W/m 19,3 km/h (3 Bft) 97,87 %
25.04.2022 16:30 14,3 C 14,4 C 10,0 C 71 % 1011,8 hPa 0,0 l/m 0 min 0 min 183 W/m 12,9 km/h (3 Bft) 100,00 %
25.04.2022 16:32 14,3 C 14,4 C 10,0 C 72 % 1011,8 hPa 0,0 l/m 0 min 0 min 178 W/m 9,7 km/h (2 Bft) 100,00 %
25.04.2022 16:34 14,2 C 14,4 C 10,0 C 73 % 1011,8 hPa 0,0 l/m 0 min 0 min 168 W/m 6,4 km/h (2 Bft) 100,00 %
25.04.2022 16:36 14,1 C 14,4 C 10,0 C 73 % 1011,8 hPa 0,0 l/m 0 min 0 min 174 W/m 12,9 km/h (3 Bft) 100,00 %
25.04.2022 16:38 14,1 C 14,4 C 10,0 C 73 % 1011,8 hPa 0,0 l/m 0 min 0 min 183 W/m 9,7 km/h (2 Bft) 100,00 %
25.04.2022 16:40 13,9 C 14,4 C 10,0 C 74 % 1011,8 hPa 0,0 l/m 0 min 0 min 207 W/m 9,7 km/h (2 Bft) 100,00 %
25.04.2022 16:42 13,9 C 14,4 C 10,0 C 74 % 1011,8 hPa 0,0 l/m 0 min 0 min 241 W/m 12,9 km/h (3 Bft) 100,00 %
25.04.2022 16:44 13,9 C 15,0 C 10,0 C 74 % 1011,8 hPa 0,0 l/m 2 min 0 min 310 W/m 16,1 km/h (3 Bft) 97,87 %
25.04.2022 16:46 13,8 C 15,6 C 10,0 C 74 % 1011,8 hPa 0,0 l/m 2 min 0 min 338 W/m 22,5 km/h (4 Bft) 100,00 %
25.04.2022 16:48 13,9 C 17,2 C 10,6 C 74 % 1011,8 hPa 0,0 l/m 2 min 0 min 499 W/m 19,3 km/h (3 Bft) 100,00 %
25.04.2022 16:50 13,9 C 18,9 C 11,1 C 75 % 1011,8 hPa 0,0 l/m 2 min 0 min 649 W/m 12,9 km/h (3 Bft) 100,00 %
25.04.2022 16:52 14,2 C 20,0 C 11,1 C 74 % 1011,8 hPa 0,0 l/m 2 min 0 min 630 W/m 12,9 km/h (3 Bft) 100,00 %
25.04.2022 16:54 14,3 C 20,6 C 11,7 C 74 % 1011,8 hPa 0,0 l/m 2 min 0 min 635 W/m 9,7 km/h (2 Bft) 100,00 %
25.04.2022 16:56 14,3 C 20,6 C 11,7 C 73 % 1011,8 hPa 0,0 l/m 2 min 0 min 593 W/m 12,9 km/h (3 Bft) 100,00 %
25.04.2022 16:58 14,6 C 20,6 C 11,7 C 73 % 1011,8 hPa 0,0 l/m 2 min 0 min 574 W/m 16,1 km/h (3 Bft) 100,00 %
25.04.2022 17:00 14,6 C 20,0 C 11,7 C 72 % 1011,9 hPa 0,0 l/m 2 min 0 min 516 W/m 19,3 km/h (3 Bft) 97,83 %
25.04.2022 17:02 14,7 C 20,0 C 11,7 C 72 % 1011,9 hPa 0,0 l/m 2 min 0 min 486 W/m 16,1 km/h (3 Bft) 97,87 %
25.04.2022 17:04 14,8 C 19,4 C 11,7 C 71 % 1011,9 hPa 0,0 l/m 2 min 0 min 469 W/m 9,7 km/h (2 Bft) 100,00 %
25.04.2022 17:06 14,8 C 18,9 C 11,7 C 71 % 1011,9 hPa 0,0 l/m 2 min 0 min 405 W/m 12,9 km/h (3 Bft) 100,00 %
25.04.2022 17:08 14,8 C 18,9 C 11,7 C 71 % 1011,9 hPa 0,0 l/m 2 min 0 min 495 W/m 19,3 km/h (3 Bft) 97,87 %
25.04.2022 17:10 14,9 C 19,4 C 11,7 C 71 % 1011,9 hPa 0,0 l/m 2 min 0 min 582 W/m 16,1 km/h (3 Bft) 100,00 %
25.04.2022 17:12 15,0 C 20,6 C 12,2 C 71 % 1011,8 hPa 0,0 l/m 2 min 0 min 606 W/m 12,9 km/h (3 Bft) 100,00 %
25.04.2022 17:14 15,1 C 20,0 C 12,2 C 70 % 1011,8 hPa 0,0 l/m 2 min 0 min 646 W/m 12,9 km/h (3 Bft) 100,00 %
25.04.2022 17:16 15,2 C 20,6 C 12,2 C 70 % 1011,8 hPa 0,0 l/m 2 min 0 min 693 W/m 12,9 km/h (3 Bft) 95,74 %
25.04.2022 17:18 15,3 C 21,1 C 12,8 C 71 % 1011,9 hPa 0,0 l/m 2 min 0 min 722 W/m 19,3 km/h (3 Bft) 95,74 %
25.04.2022 17:20 15,4 C 21,1 C 12,8 C 71 % 1011,8 hPa 0,0 l/m 2 min 0 min 516 W/m 22,5 km/h (4 Bft) 95,74 %
25.04.2022 17:22 15,6 C 21,1 C 12,8 C 70 % 1011,9 hPa 0,0 l/m 2 min 0 min 511 W/m 25,7 km/h (4 Bft) 95,74 %
25.04.2022 17:24 15,6 C 21,1 C 12,8 C 69 % 1011,8 hPa 0,0 l/m 2 min 0 min 507 W/m 12,9 km/h (3 Bft) 95,65 %
25.04.2022 17:26 15,6 C 20,6 C 12,8 C 70 % 1011,9 hPa 0,0 l/m 2 min 0 min 649 W/m 9,7 km/h (2 Bft) 93,62 %
25.04.2022 17:28 15,6 C 20,0 C 12,8 C 70 % 1011,9 hPa 0,0 l/m 2 min 0 min 491 W/m 9,7 km/h (2 Bft) 95,74 %
25.04.2022 17:30 15,7 C 18,9 C 12,2 C 69 % 1011,9 hPa 0,0 l/m 0 min 0 min 193 W/m 12,9 km/h (3 Bft) 95,74 %
25.04.2022 17:32 15,6 C 17,2 C 11,7 C 70 % 1012,0 hPa 0,0 l/m 0 min 2 min 156 W/m 16,1 km/h (3 Bft) 93,62 %
25.04.2022 17:34 15,4 C 16,1 C 10,6 C 73 % 1012,0 hPa 0,2 l/m 0 min 2 min 74 W/m 9,7 km/h (2 Bft) 95,74 %
25.04.2022 17:36 15,1 C 14,4 C 9,4 C 74 % 1012,0 hPa 0,2 l/m 0 min 2 min 55 W/m 22,5 km/h (4 Bft) 93,48 %
25.04.2022 17:38 14,7 C 13,9 C 8,9 C 76 % 1012,1 hPa 0,2 l/m 0 min 2 min 45 W/m 25,7 km/h (4 Bft) 93,62 %
25.04.2022 17:40 14,3 C 12,8 C 8,3 C 77 % 1012,1 hPa 0,0 l/m 0 min 2 min 37 W/m 19,3 km/h (3 Bft) 95,74 %
25.04.2022 17:42 14,1 C 12,2 C 7,8 C 78 % 1012,1 hPa 0,2 l/m 0 min 2 min 34 W/m 9,7 km/h (2 Bft) 95,74 %
25.04.2022 17:44 13,8 C 12,2 C 7,8 C 79 % 1012,2 hPa 0,2 l/m 0 min 2 min 33 W/m 16,1 km/h (3 Bft) 95,74 %
25.04.2022 17:46 13,5 C 11,7 C 7,2 C 80 % 1012,2 hPa 0,2 l/m 0 min 2 min 32 W/m 16,1 km/h (3 Bft) 95,74 %
25.04.2022 17:48 13,3 C 11,7 C 7,2 C 81 % 1012,2 hPa 0,0 l/m 0 min 2 min 30 W/m 12,9 km/h (3 Bft) 95,65 %
25.04.2022 17:50 13,2 C 11,7 C 7,2 C 82 % 1012,2 hPa 0,0 l/m 0 min 2 min 30 W/m 19,3 km/h (3 Bft) 93,62 %
25.04.2022 17:52 13,1 C 11,7 C 7,2 C 82 % 1012,2 hPa 0,2 l/m 0 min 2 min 32 W/m 16,1 km/h (3 Bft) 95,74 %
25.04.2022 17:54 12,9 C 11,1 C 7,2 C 83 % 1012,2 hPa 0,0 l/m 0 min 2 min 32 W/m 12,9 km/h (3 Bft) 95,74 %
25.04.2022 17:56 12,8 C 11,1 C 6,7 C 83 % 1012,2 hPa 0,0 l/m 0 min 2 min 28 W/m 9,7 km/h (2 Bft) 95,74 %
25.04.2022 17:58 12,6 C 11,1 C 6,7 C 84 % 1012,1 hPa 0,0 l/m 0 min 2 min 27 W/m 12,9 km/h (3 Bft) 97,87 %
25.04.2022 18:00 12,5 C 11,1 C 6,7 C 84 % 1012,2 hPa 0,2 l/m 0 min 0 min 28 W/m 12,9 km/h (3 Bft) 93,48 %
25.04.2022 18:02 12,3 C 11,1 C 6,7 C 84 % 1012,1 hPa 0,0 l/m 0 min 0 min 28 W/m 9,7 km/h (2 Bft) 95,74 %
25.04.2022 18:04 12,2 C 11,1 C 6,7 C 85 % 1012,1 hPa 0,0 l/m 0 min 0 min 28 W/m 9,7 km/h (2 Bft) 97,87 %
25.04.2022 18:08 12,0 C 11,1 C 6,7 C 86 % 1012,1 hPa 0,0 l/m 0 min 0 min 28 W/m 12,9 km/h (3 Bft) 97,00 %
25.04.2022 18:10 11,9 C 11,1 C 6,7 C 86 % 1012,1 hPa 0,0 l/m 0 min 0 min 28 W/m 12,9 km/h (3 Bft) 100,00 %
25.04.2022 18:12 11,8 C 10,6 C 6,7 C 86 % 1012,1 hPa 0,0 l/m 0 min 0 min 26 W/m 12,9 km/h (3 Bft) 95,74 %
25.04.2022 18:14 11,8 C 11,1 C 6,7 C 86 % 1012,1 hPa 0,0 l/m 0 min 0 min 24 W/m 12,9 km/h (3 Bft) 100,00 %
25.04.2022 18:16 11,7 C 11,1 C 6,7 C 87 % 1012,1 hPa 0,0 l/m 0 min 0 min 23 W/m 16,1 km/h (3 Bft) 100,00 %
25.04.2022 18:18 11,7 C 11,1 C 6,7 C 87 % 1012,1 hPa 0,0 l/m 0 min 0 min 23 W/m 12,9 km/h (3 Bft) 97,87 %
25.04.2022 18:20 11,6 C 11,1 C 6,7 C 87 % 1012,2 hPa 0,0 l/m 0 min 0 min 25 W/m 12,9 km/h (3 Bft) 97,87 %
25.04.2022 18:22 11,6 C 11,1 C 6,7 C 87 % 1012,2 hPa 0,0 l/m 0 min 0 min 27 W/m 9,7 km/h (2 Bft) 93,62 %
25.04.2022 18:24 11,6 C 11,1 C 6,7 C 87 % 1012,2 hPa 0,0 l/m 0 min 0 min 32 W/m 6,4 km/h (2 Bft) 97,83 %
25.04.2022 18:26 11,4 C 11,1 C 6,7 C 87 % 1012,2 hPa 0,0 l/m 0 min 0 min 36 W/m 12,9 km/h (3 Bft) 95,74 %
25.04.2022 18:28 11,4 C 11,1 C 6,7 C 88 % 1012,2 hPa 0,0 l/m 0 min 0 min 40 W/m 9,7 km/h (2 Bft) 97,87 %
25.04.2022 18:30 11,4 C 11,1 C 7,2 C 88 % 1012,2 hPa 0,0 l/m 0 min 0 min 45 W/m 12,9 km/h (3 Bft) 95,74 %
25.04.2022 18:32 11,4 C 11,1 C 7,2 C 88 % 1012,2 hPa 0,0 l/m 0 min 0 min 51 W/m 6,4 km/h (2 Bft) 98,18 %
25.04.2022 18:34 11,4 C 11,1 C 7,2 C 88 % 1012,1 hPa 0,0 l/m 0 min 0 min 57 W/m 12,9 km/h (3 Bft) 97,83 %
25.04.2022 18:36 11,4 C 11,1 C 7,2 C 88 % 1012,2 hPa 0,0 l/m 0 min 0 min 62 W/m 9,7 km/h (2 Bft) 97,87 %
25.04.2022 18:38 11,4 C 11,1 C 7,2 C 88 % 1012,2 hPa 0,0 l/m 0 min 0 min 74 W/m 16,1 km/h (3 Bft) 97,87 %
25.04.2022 18:40 11,4 C 11,1 C 7,8 C 88 % 1012,2 hPa 0,0 l/m 0 min 0 min 82 W/m 9,7 km/h (2 Bft) 97,87 %
25.04.2022 18:42 11,4 C 11,1 C 7,8 C 88 % 1012,2 hPa 0,0 l/m 0 min 0 min 87 W/m 19,3 km/h (3 Bft) 97,87 %
25.04.2022 18:44 11,4 C 11,1 C 7,8 C 88 % 1012,2 hPa 0,0 l/m 0 min 0 min 86 W/m 9,7 km/h (2 Bft) 97,87 %
25.04.2022 18:46 11,4 C 11,1 C 7,8 C 89 % 1012,2 hPa 0,0 l/m 0 min 0 min 82 W/m 9,7 km/h (2 Bft) 95,65 %
25.04.2022 18:48 11,4 C 11,1 C 7,8 C 89 % 1012,2 hPa 0,0 l/m 0 min 0 min 70 W/m 9,7 km/h (2 Bft) 97,87 %
25.04.2022 18:50 11,4 C 11,1 C 7,8 C 89 % 1012,3 hPa 0,0 l/m 0 min 0 min 56 W/m 3,2 km/h (1 Bft) 95,74 %
25.04.2022 18:52 11,4 C 11,1 C 7,8 C 89 % 1012,3 hPa 0,0 l/m 0 min 0 min 47 W/m 9,7 km/h (2 Bft) 97,87 %
25.04.2022 18:54 11,5 C 11,1 C 7,8 C 89 % 1012,3 hPa 0,0 l/m 0 min 2 min 40 W/m 6,4 km/h (2 Bft) 100,00 %
25.04.2022 18:56 11,6 C 11,1 C 7,8 C 89 % 1012,3 hPa 0,0 l/m 0 min 2 min 37 W/m 6,4 km/h (2 Bft) 100,00 %
25.04.2022 18:58 11,5 C 11,1 C 7,8 C 89 % 1012,3 hPa 0,0 l/m 0 min 2 min 32 W/m 12,9 km/h (3 Bft) 100,00 %
25.04.2022 19:00 11,4 C 11,1 C 7,2 C 88 % 1012,4 hPa 0,0 l/m 0 min 0 min 28 W/m 16,1 km/h (3 Bft) 97,87 %
25.04.2022 19:02 11,4 C 11,1 C 7,2 C 88 % 1012,4 hPa 0,0 l/m 0 min 2 min 23 W/m 9,7 km/h (2 Bft) 97,87 %
25.04.2022 19:04 11,4 C 11,1 C 7,2 C 88 % 1012,4 hPa 0,0 l/m 0 min 2 min 18 W/m 6,4 km/h (2 Bft) 100,00 %
25.04.2022 19:06 11,4 C 11,1 C 7,2 C 88 % 1012,4 hPa 0,0 l/m 0 min 2 min 15 W/m 9,7 km/h (2 Bft) 100,00 %
25.04.2022 19:08 11,4 C 11,1 C 7,2 C 88 % 1012,4 hPa 0,0 l/m 0 min 2 min 12 W/m 3,2 km/h (1 Bft) 97,83 %
25.04.2022 19:10 11,4 C 11,1 C 7,2 C 88 % 1012,5 hPa 0,0 l/m 0 min 2 min 13 W/m 6,4 km/h (2 Bft) 97,87 %
25.04.2022 19:12 11,4 C 11,1 C 7,2 C 88 % 1012,5 hPa 0,0 l/m 0 min 2 min 15 W/m 9,7 km/h (2 Bft) 97,87 %
25.04.2022 19:14 11,4 C 10,6 C 7,2 C 88 % 1012,5 hPa 0,0 l/m 0 min 2 min 18 W/m 6,4 km/h (2 Bft) 97,87 %
25.04.2022 19:16 11,4 C 10,6 C 7,2 C 88 % 1012,5 hPa 0,0 l/m 0 min 2 min 19 W/m 3,2 km/h (1 Bft) 97,87 %
25.04.2022 19:18 11,4 C 10,6 C 7,2 C 88 % 1012,5 hPa 0,0 l/m 0 min 2 min 18 W/m 6,4 km/h (2 Bft) 97,87 %
25.04.2022 19:20 11,4 C 10,6 C 7,2 C 88 % 1012,6 hPa 0,0 l/m 0 min 2 min 13 W/m 3,2 km/h (1 Bft) 97,83 %
25.04.2022 19:22 11,4 C 10,6 C 7,2 C 89 % 1012,6 hPa 0,0 l/m 0 min 2 min 11 W/m 6,4 km/h (2 Bft) 97,87 %
25.04.2022 19:24 11,4 C 10,6 C 6,7 C 89 % 1012,7 hPa 0,2 l/m 0 min 2 min 10 W/m 6,4 km/h (2 Bft) 97,87 %
25.04.2022 19:26 11,4 C 10,0 C 6,7 C 89 % 1012,7 hPa 0,2 l/m 0 min 2 min 9 W/m 6,4 km/h (2 Bft) 97,87 %
25.04.2022 19:28 11,3 C 9,4 C 6,1 C 88 % 1012,8 hPa 0,0 l/m 0 min 2 min 8 W/m 12,9 km/h (3 Bft) 97,87 %
25.04.2022 19:30 11,1 C 9,4 C 5,6 C 88 % 1012,9 hPa 0,2 l/m 0 min 2 min 6 W/m 12,9 km/h (3 Bft) 97,87 %
25.04.2022 19:32 11,1 C 8,9 C 5,6 C 88 % 1013,1 hPa 1,0 l/m 0 min 2 min 1 W/m 16,1 km/h (3 Bft) 95,74 %
25.04.2022 19:34 10,8 C 8,3 C 5,0 C 89 % 1013,1 hPa 1,8 l/m 0 min 2 min 0 W/m 25,7 km/h (4 Bft) 97,83 %
25.04.2022 19:36 10,6 C 7,8 C 3,9 C 88 % 1013,1 hPa 2,0 l/m 0 min 2 min 0 W/m 16,1 km/h (3 Bft) 97,87 %
25.04.2022 19:38 10,4 C 7,8 C 4,4 C 88 % 1013,0 hPa 1,0 l/m 0 min 2 min 0 W/m 12,9 km/h (3 Bft) 100,00 %
25.04.2022 19:40 10,2 C 7,8 C 4,4 C 88 % 1013,0 hPa 1,2 l/m 0 min 2 min 0 W/m 12,9 km/h (3 Bft) 100,00 %
25.04.2022 19:42 10,1 C 7,8 C 4,4 C 89 % 1013,0 hPa 0,6 l/m 0 min 2 min 0 W/m 19,3 km/h (3 Bft) 97,87 %
25.04.2022 19:44 9,9 C 7,8 C 4,4 C 89 % 1013,0 hPa 0,4 l/m 0 min 2 min 0 W/m 12,9 km/h (3 Bft) 100,00 %
25.04.2022 19:46 9,8 C 7,8 C 4,4 C 89 % 1013,0 hPa 0,2 l/m 0 min 2 min 0 W/m 6,4 km/h (2 Bft) 100,00 %
25.04.2022 19:48 9,7 C 7,8 C 5,0 C 90 % 1013,0 hPa 0,2 l/m 0 min 2 min 0 W/m 6,4 km/h (2 Bft) 100,00 %
25.04.2022 19:50 9,6 C 7,8 C 5,0 C 90 % 1013,0 hPa 0,0 l/m 0 min 2 min 0 W/m 3,2 km/h (1 Bft) 100,00 %
25.04.2022 19:52 9,6 C 8,3 C 5,0 C 90 % 1013,0 hPa 0,2 l/m 0 min 2 min 0 W/m 3,2 km/h (1 Bft) 100,00 %
25.04.2022 19:54 9,6 C 7,8 C 5,0 C 91 % 1013,0 hPa 0,0 l/m 0 min 0 min 0 W/m 3,2 km/h (1 Bft) 100,00 %
25.04.2022 19:56 9,6 C 7,8 C 5,0 C 91 % 1013,0 hPa 0,0 l/m 0 min 2 min 0 W/m 6,4 km/h (2 Bft) 100,00 %
25.04.2022 19:58 9,6 C 7,8 C 5,0 C 91 % 1013,0 hPa 0,0 l/m 0 min 2 min 0 W/m 3,2 km/h (1 Bft) 100,00 %
25.04.2022 20:00 9,5 C 7,8 C 5,0 C 91 % 1013,0 hPa 0,0 l/m 0 min 2 min 0 W/m 3,2 km/h (1 Bft) 97,87 %
25.04.2022 20:02 9,5 C 7,8 C 5,0 C 92 % 1013,1 hPa 0,2 l/m 0 min 2 min 0 W/m 3,2 km/h (1 Bft) 97,87 %
25.04.2022 20:04 9,5 C 8,3 C 5,0 C 92 % 1013,1 hPa 0,2 l/m 0 min 2 min 0 W/m 3,2 km/h (1 Bft) 100,00 %
25.04.2022 20:06 9,4 C 8,3 C 5,0 C 92 % 1013,1 hPa 0,4 l/m 0 min 2 min 0 W/m 6,4 km/h (2 Bft) 100,00 %
25.04.2022 20:08 9,4 C 8,3 C 5,0 C 92 % 1013,1 hPa 0,2 l/m 0 min 2 min 0 W/m 6,4 km/h (2 Bft) 100,00 %
25.04.2022 20:10 9,4 C 8,3 C 5,0 C 92 % 1013,1 hPa 0,2 l/m 0 min 2 min 0 W/m 9,7 km/h (2 Bft) 97,22 %
25.04.2022 20:12 9,4 C 8,3 C 5,6 C 92 % 1013,1 hPa 0,4 l/m 0 min 2 min 0 W/m 6,4 km/h (2 Bft) 100,00 %
25.04.2022 20:14 9,4 C 8,3 C 5,6 C 93 % 1013,2 hPa 0,2 l/m 0 min 2 min 0 W/m 3,2 km/h (1 Bft) 100,00 %
25.04.2022 20:16 9,4 C 8,3 C 5,0 C 93 % 1013,3 hPa 0,4 l/m 0 min 2 min 0 W/m 6,4 km/h (2 Bft) 100,00 %
25.04.2022 20:18 9,4 C 8,3 C 5,0 C 93 % 1013,2 hPa 0,8 l/m 0 min 2 min 0 W/m 12,9 km/h (3 Bft) 100,00 %
25.04.2022 20:20 9,4 C 8,3 C 5,0 C 93 % 1013,1 hPa 0,4 l/m 0 min 2 min 0 W/m 16,1 km/h (3 Bft) 97,96 %
25.04.2022 20:22 9,3 C 7,8 C 4,4 C 93 % 1013,2 hPa 0,2 l/m 0 min 2 min 0 W/m 9,7 km/h (2 Bft) 100,00 %
25.04.2022 20:24 9,2 C 7,8 C 4,4 C 93 % 1013,1 hPa 0,0 l/m 0 min 2 min 0 W/m 6,4 km/h (2 Bft) 100,00 %
25.04.2022 20:26 9,2 C 7,8 C 4,4 C 93 % 1013,2 hPa 0,0 l/m 0 min 2 min 0 W/m 9,7 km/h (2 Bft) 100,00 %
25.04.2022 20:28 9,1 C 7,8 C 4,4 C 93 % 1013,2 hPa 0,0 l/m 0 min 2 min 0 W/m 19,3 km/h (3 Bft) 100,00 %
25.04.2022 20:30 9,1 C 7,8 C 5,0 C 93 % 1013,3 hPa 0,2 l/m 0 min 2 min 0 W/m 9,7 km/h (2 Bft) 95,74 %
25.04.2022 20:32 9,2 C 7,8 C 5,0 C 93 % 1013,3 hPa 0,0 l/m 0 min 2 min 0 W/m 9,7 km/h (2 Bft) 95,65 %
25.04.2022 20:34 9,2 C 8,3 C 5,0 C 94 % 1013,3 hPa 0,0 l/m 0 min 2 min 0 W/m 9,7 km/h (2 Bft) 97,87 %
25.04.2022 20:36 9,3 C 8,3 C 5,0 C 94 % 1013,3 hPa 0,0 l/m 0 min 2 min 0 W/m 9,7 km/h (2 Bft) 97,87 %
25.04.2022 20:38 9,3 C 8,3 C 5,0 C 94 % 1013,2 hPa 0,0 l/m 0 min 2 min 0 W/m 9,7 km/h (2 Bft) 95,83 %
25.04.2022 20:40 9,3 C 8,3 C 5,0 C 94 % 1013,2 hPa 0,0 l/m 0 min 2 min 0 W/m 6,4 km/h (2 Bft) 97,87 %
25.04.2022 20:42 9,3 C 8,3 C 5,0 C 94 % 1013,3 hPa 0,0 l/m 0 min 0 min 0 W/m 6,4 km/h (2 Bft) 97,87 %
25.04.2022 20:44 9,3 C 8,3 C 5,0 C 94 % 1013,3 hPa 0,0 l/m 0 min 0 min 0 W/m 9,7 km/h (2 Bft) 95,65 %
25.04.2022 20:46 9,3 C 8,3 C 5,0 C 94 % 1013,3 hPa 0,0 l/m 0 min 0 min 0 W/m 3,2 km/h (1 Bft) 95,74 %
25.04.2022 20:48 9,3 C 8,3 C 5,0 C 94 % 1013,4 hPa 0,0 l/m 0 min 0 min 0 W/m 6,4 km/h (2 Bft) 95,74 %
25.04.2022 20:50 9,4 C 8,3 C 5,0 C 94 % 1013,4 hPa 0,0 l/m 0 min 0 min 0 W/m 6,4 km/h (2 Bft) 93,62 %
25.04.2022 20:52 9,4 C 8,3 C 5,0 C 94 % 1013,4 hPa 0,0 l/m 0 min 0 min 0 W/m 3,2 km/h (1 Bft) 95,74 %
25.04.2022 20:54 9,4 C 8,3 C 5,0 C 94 % 1013,4 hPa 0,0 l/m 0 min 0 min 0 W/m 3,2 km/h (1 Bft) 93,62 %
25.04.2022 20:56 9,4 C 8,3 C 5,0 C 94 % 1013,4 hPa 0,0 l/m 0 min 0 min 0 W/m 3,2 km/h (1 Bft) 95,65 %
25.04.2022 20:58 9,4 C 8,3 C 5,0 C 95 % 1013,5 hPa 0,0 l/m 0 min 0 min 0 W/m 6,4 km/h (2 Bft) 93,62 %
25.04.2022 21:00 9,4 C 8,3 C 5,0 C 95 % 1013,5 hPa 0,0 l/m 0 min 0 min 0 W/m 9,7 km/h (2 Bft) 91,49 %
25.04.2022 21:02 9,4 C 8,3 C 5,0 C 95 % 1013,5 hPa 0,0 l/m 0 min 0 min 0 W/m 9,7 km/h (2 Bft) 93,62 %
25.04.2022 21:04 9,4 C 8,3 C 5,0 C 95 % 1013,5 hPa 0,0 l/m 0 min 0 min 0 W/m 9,7 km/h (2 Bft) 89,36 %
25.04.2022 21:06 9,4 C 8,3 C 5,0 C 95 % 1013,6 hPa 0,0 l/m 0 min 0 min 0 W/m 12,9 km/h (3 Bft) 93,48 %
25.04.2022 21:08 9,4 C 8,3 C 5,0 C 95 % 1013,6 hPa 0,0 l/m 0 min 0 min 0 W/m 6,4 km/h (2 Bft) 95,74 %
25.04.2022 21:10 9,4 C 8,3 C 5,0 C 95 % 1013,6 hPa 0,0 l/m 0 min 0 min 0 W/m 6,4 km/h (2 Bft) 95,74 %
25.04.2022 21:12 9,4 C 8,3 C 5,0 C 95 % 1013,7 hPa 0,0 l/m 0 min 0 min 0 W/m 3,2 km/h (1 Bft) 93,62 %
25.04.2022 21:14 9,4 C 8,3 C 5,0 C 95 % 1013,7 hPa 0,0 l/m 0 min 0 min 0 W/m 3,2 km/h (1 Bft) 95,74 %
25.04.2022 21:16 9,4 C 8,3 C 5,0 C 95 % 1013,7 hPa 0,0 l/m 0 min 0 min 0 W/m 3,2 km/h (1 Bft) 93,62 %
25.04.2022 21:18 9,4 C 8,3 C 5,0 C 95 % 1013,7 hPa 0,0 l/m 0 min 0 min 0 W/m 6,4 km/h (2 Bft) 93,48 %
25.04.2022 21:20 9,4 C 8,3 C 5,0 C 95 % 1013,8 hPa 0,0 l/m 0 min 0 min 0 W/m 6,4 km/h (2 Bft) 93,62 %
25.04.2022 21:22 9,4 C 8,3 C 5,0 C 95 % 1013,8 hPa 0,0 l/m 0 min 0 min 0 W/m 3,2 km/h (1 Bft) 95,74 %
25.04.2022 21:24 9,5 C 8,3 C 5,0 C 95 % 1013,8 hPa 0,0 l/m 0 min 0 min 0 W/m 6,4 km/h (2 Bft) 97,87 %
25.04.2022 21:26 9,6 C 8,9 C 5,0 C 95 % 1013,7 hPa 0,0 l/m 0 min 0 min 0 W/m 3,2 km/h (1 Bft) 97,87 %
25.04.2022 21:28 9,6 C 8,9 C 5,6 C 95 % 1013,7 hPa 0,0 l/m 0 min 0 min 0 W/m 6,4 km/h (2 Bft) 97,87 %
25.04.2022 21:30 9,6 C 8,9 C 5,6 C 95 % 1013,7 hPa 0,0 l/m 0 min 0 min 0 W/m 6,4 km/h (2 Bft) 97,83 %
25.04.2022 21:32 9,6 C 8,9 C 5,6 C 95 % 1013,7 hPa 0,0 l/m 0 min 0 min 0 W/m 9,7 km/h (2 Bft) 97,87 %
25.04.2022 21:34 9,6 C 8,9 C 5,6 C 95 % 1013,7 hPa 0,0 l/m 0 min 0 min 0 W/m 6,4 km/h (2 Bft) 95,74 %
25.04.2022 21:36 9,6 C 8,9 C 5,6 C 95 % 1013,7 hPa 0,0 l/m 0 min 0 min 0 W/m 6,4 km/h (2 Bft) 97,87 %
25.04.2022 21:38 9,6 C 8,9 C 5,6 C 95 % 1013,7 hPa 0,0 l/m 0 min 0 min 0 W/m 9,7 km/h (2 Bft) 98,15 %
25.04.2022 21:40 9,6 C 8,9 C 5,6 C 95 % 1013,7 hPa 0,0 l/m 0 min 0 min 0 W/m 3,2 km/h (1 Bft) 97,96 %
25.04.2022 21:42 9,6 C 8,9 C 5,6 C 95 % 1013,8 hPa 0,0 l/m 0 min 0 min 0 W/m 9,7 km/h (2 Bft) 100,00 %
25.04.2022 21:44 9,6 C 8,9 C 5,6 C 95 % 1013,9 hPa 0,0 l/m 0 min 0 min 0 W/m 6,4 km/h (2 Bft) 97,87 %
25.04.2022 21:46 9,6 C 8,9 C 5,6 C 95 % 1013,8 hPa 0,0 l/m 0 min 0 min 0 W/m 3,2 km/h (1 Bft) 100,00 %
25.04.2022 21:48 9,7 C 8,9 C 5,6 C 95 % 1013,9 hPa 0,0 l/m 0 min 0 min 0 W/m 9,7 km/h (2 Bft) 97,87 %
25.04.2022 21:50 9,7 C 8,9 C 5,6 C 95 % 1013,9 hPa 0,0 l/m 0 min 0 min 0 W/m 3,2 km/h (1 Bft) 100,00 %
25.04.2022 21:52 9,7 C 8,9 C 5,6 C 95 % 1013,9 hPa 0,0 l/m 0 min 0 min 0 W/m 3,2 km/h (1 Bft) 100,00 %
25.04.2022 21:54 9,7 C 8,9 C 5,6 C 95 % 1013,9 hPa 0,0 l/m 0 min 2 min 0 W/m 3,2 km/h (1 Bft) 100,00 %
25.04.2022 21:56 9,7 C 8,9 C 5,6 C 95 % 1013,9 hPa 0,0 l/m 0 min 2 min 0 W/m 6,4 km/h (2 Bft) 97,87 %
25.04.2022 21:58 9,7 C 8,9 C 5,6 C 95 % 1013,9 hPa 0,0 l/m 0 min 2 min 0 W/m 3,2 km/h (1 Bft) 100,00 %
25.04.2022 22:00 9,8 C 8,9 C 5,6 C 96 % 1013,9 hPa 0,0 l/m 0 min 2 min 0 W/m 6,4 km/h (2 Bft) 100,00 %
25.04.2022 22:02 9,8 C 8,9 C 5,6 C 96 % 1014,0 hPa 0,0 l/m 0 min 0 min 0 W/m 6,4 km/h (2 Bft) 100,00 %
25.04.2022 22:04 9,8 C 8,9 C 5,6 C 96 % 1014,0 hPa 0,0 l/m 0 min 2 min 0 W/m 6,4 km/h (2 Bft) 100,00 %
25.04.2022 22:06 9,8 C 8,9 C 5,6 C 96 % 1014,0 hPa 0,0 l/m 0 min 2 min 0 W/m 3,2 km/h (1 Bft) 100,00 %
25.04.2022 22:08 9,8 C 8,9 C 5,6 C 96 % 1014,1 hPa 0,0 l/m 0 min 2 min 0 W/m 6,4 km/h (2 Bft) 100,00 %
25.04.2022 22:10 9,8 C 8,9 C 5,6 C 96 % 1014,1 hPa 0,0 l/m 0 min 0 min 0 W/m 6,4 km/h (2 Bft) 97,87 %
25.04.2022 22:12 9,8 C 8,9 C 5,6 C 96 % 1014,1 hPa 0,0 l/m 0 min 0 min 0 W/m 6,4 km/h (2 Bft) 97,87 %
25.04.2022 22:14 9,8 C 8,9 C 5,6 C 96 % 1014,1 hPa 0,0 l/m 0 min 0 min 0 W/m 3,2 km/h (1 Bft) 100,00 %
25.04.2022 22:16 9,8 C 8,9 C 5,6 C 96 % 1014,1 hPa 0,0 l/m 0 min 0 min 0 W/m 9,7 km/h (2 Bft) 100,00 %
25.04.2022 22:18 9,8 C 8,9 C 5,6 C 96 % 1014,2 hPa 0,0 l/m 0 min 0 min 0 W/m 6,4 km/h (2 Bft) 100,00 %
25.04.2022 22:20 9,8 C 8,9 C 5,6 C 96 % 1014,2 hPa 0,0 l/m 0 min 0 min 0 W/m 6,4 km/h (2 Bft) 100,00 %
25.04.2022 22:22 9,8 C 8,9 C 5,6 C 96 % 1014,2 hPa 0,0 l/m 0 min 0 min 0 W/m 3,2 km/h (1 Bft) 100,00 %
25.04.2022 22:24 9,8 C 8,9 C 5,6 C 96 % 1014,2 hPa 0,0 l/m 0 min 0 min 0 W/m 6,4 km/h (2 Bft) 100,00 %
25.04.2022 22:26 9,8 C 8,9 C 5,6 C 96 % 1014,2 hPa 0,0 l/m 0 min 0 min 0 W/m 9,7 km/h (2 Bft) 100,00 %
25.04.2022 22:28 9,8 C 8,9 C 5,6 C 96 % 1014,3 hPa 0,0 l/m 0 min 0 min 0 W/m 9,7 km/h (2 Bft) 100,00 %
25.04.2022 22:30 9,9 C 8,9 C 5,6 C 96 % 1014,2 hPa 0,0 l/m 0 min 0 min 0 W/m 3,2 km/h (1 Bft) 100,00 %
25.04.2022 22:32 9,9 C 8,9 C 5,6 C 96 % 1014,2 hPa 0,0 l/m 0 min 0 min 0 W/m 3,2 km/h (1 Bft) 97,92 %
25.04.2022 22:34 9,9 C 8,9 C 5,6 C 96 % 1014,2 hPa 0,2 l/m 0 min 2 min 0 W/m 9,7 km/h (2 Bft) 100,00 %
25.04.2022 22:36 9,9 C 8,9 C 5,6 C 96 % 1014,2 hPa 0,0 l/m 0 min 0 min 0 W/m 9,7 km/h (2 Bft) 97,87 %
25.04.2022 22:38 9,9 C 8,9 C 5,6 C 96 % 1014,2 hPa 0,0 l/m 0 min 0 min 0 W/m 9,7 km/h (2 Bft) 97,87 %
25.04.2022 22:40 9,8 C 8,9 C 5,6 C 96 % 1014,2 hPa 0,0 l/m 0 min 0 min 0 W/m 9,7 km/h (2 Bft) 100,00 %
25.04.2022 22:42 9,8 C 8,9 C 5,6 C 96 % 1014,2 hPa 0,0 l/m 0 min 0 min 0 W/m 6,4 km/h (2 Bft) 97,87 %
25.04.2022 22:44 9,8 C 8,9 C 5,6 C 96 % 1014,2 hPa 0,0 l/m 0 min 0 min 0 W/m 6,4 km/h (2 Bft) 97,87 %
25.04.2022 22:46 9,8 C 8,9 C 5,6 C 96 % 1014,2 hPa 0,0 l/m 0 min 0 min 0 W/m 12,9 km/h (3 Bft) 95,74 %
25.04.2022 22:48 9,8 C 8,9 C 5,6 C 96 % 1014,1 hPa 0,0 l/m 0 min 2 min 0 W/m 6,4 km/h (2 Bft) 95,74 %
25.04.2022 22:50 9,8 C 8,9 C 5,6 C 96 % 1014,2 hPa 0,0 l/m 0 min 2 min 0 W/m 16,1 km/h (3 Bft) 95,74 %
25.04.2022 22:52 9,8 C 8,9 C 5,6 C 96 % 1014,1 hPa 0,0 l/m 0 min 2 min 0 W/m 6,4 km/h (2 Bft) 97,83 %
25.04.2022 22:54 9,8 C 8,9 C 5,6 C 96 % 1014,1 hPa 0,0 l/m 0 min 2 min 0 W/m 0,0 km/h (0 Bft) 95,74 %
25.04.2022 22:56 9,7 C 8,9 C 5,6 C 96 % 1014,2 hPa 0,0 l/m 0 min 2 min 0 W/m 0,0 km/h (0 Bft) 95,74 %
25.04.2022 22:58 9,7 C 8,9 C 5,6 C 96 % 1014,2 hPa 0,0 l/m 0 min 2 min 0 W/m 0,0 km/h (0 Bft) 95,74 %
25.04.2022 23:00 9,7 C 8,9 C 5,6 C 96 % 1014,2 hPa 0,2 l/m 0 min 2 min 0 W/m 0,0 km/h (0 Bft) 95,74 %
25.04.2022 23:02 9,7 C 8,3 C 5,6 C 96 % 1014,2 hPa 0,0 l/m 0 min 2 min 0 W/m 3,2 km/h (1 Bft) 93,62 %
25.04.2022 23:04 9,6 C 8,9 C 5,6 C 96 % 1014,2 hPa 0,2 l/m 0 min 2 min 0 W/m 6,4 km/h (2 Bft) 93,48 %
25.04.2022 23:06 9,6 C 8,9 C 5,6 C 96 % 1014,2 hPa 0,0 l/m 0 min 2 min 0 W/m 6,4 km/h (2 Bft) 95,74 %
25.04.2022 23:08 9,6 C 8,9 C 5,6 C 96 % 1014,1 hPa 0,0 l/m 0 min 2 min 0 W/m 6,4 km/h (2 Bft) 96,23 %
25.04.2022 23:10 9,6 C 8,3 C 5,6 C 96 % 1014,1 hPa 0,0 l/m 0 min 2 min 0 W/m 6,4 km/h (2 Bft) 95,74 %
25.04.2022 23:12 9,5 C 8,3 C 5,0 C 96 % 1014,1 hPa 0,0 l/m 0 min 0 min 0 W/m 3,2 km/h (1 Bft) 95,74 %
25.04.2022 23:14 9,4 C 8,3 C 5,0 C 96 % 1014,0 hPa 0,0 l/m 0 min 0 min 0 W/m 6,4 km/h (2 Bft) 97,83 %
25.04.2022 23:16 9,4 C 8,3 C 5,0 C 96 % 1014,1 hPa 0,0 l/m 0 min 0 min 0 W/m 6,4 km/h (2 Bft) 97,87 %
25.04.2022 23:18 9,4 C 8,3 C 5,0 C 96 % 1014,0 hPa 0,0 l/m 0 min 0 min 0 W/m 9,7 km/h (2 Bft) 97,56 %
25.04.2022 23:20 9,3 C 8,3 C 5,0 C 96 % 1014,0 hPa 0,0 l/m 0 min 0 min 0 W/m 19,3 km/h (3 Bft) 97,87 %
25.04.2022 23:22 9,3 C 8,3 C 5,0 C 96 % 1014,0 hPa 0,0 l/m 0 min 0 min 0 W/m 9,7 km/h (2 Bft) 97,87 %
25.04.2022 23:24 9,3 C 8,3 C 5,0 C 96 % 1014,0 hPa 0,0 l/m 0 min 0 min 0 W/m 9,7 km/h (2 Bft) 95,74 %
25.04.2022 23:26 9,2 C 8,3 C 5,0 C 96 % 1014,0 hPa 0,0 l/m 0 min 0 min 0 W/m 6,4 km/h (2 Bft) 97,83 %
25.04.2022 23:28 9,3 C 8,3 C 5,0 C 96 % 1014,1 hPa 0,0 l/m 0 min 0 min 0 W/m 9,7 km/h (2 Bft) 97,87 %
25.04.2022 23:30 9,3 C 8,3 C 5,0 C 96 % 1014,1 hPa 0,0 l/m 0 min 0 min 0 W/m 9,7 km/h (2 Bft) 100,00 %
25.04.2022 23:32 9,3 C 8,3 C 5,0 C 96 % 1014,1 hPa 0,0 l/m 0 min 0 min 0 W/m 9,7 km/h (2 Bft) 98,11 %
25.04.2022 23:34 9,3 C 8,3 C 5,0 C 96 % 1014,2 hPa 0,0 l/m 0 min 0 min 0 W/m 16,1 km/h (3 Bft) 97,87 %
25.04.2022 23:36 9,3 C 8,3 C 5,6 C 96 % 1014,2 hPa 0,0 l/m 0 min 0 min 0 W/m 3,2 km/h (1 Bft) 97,83 %
25.04.2022 23:38 9,3 C 8,3 C 5,6 C 96 % 1014,3 hPa 0,0 l/m 0 min 0 min 0 W/m 6,4 km/h (2 Bft) 97,87 %
25.04.2022 23:40 9,3 C 8,3 C 5,6 C 96 % 1014,4 hPa 0,0 l/m 0 min 0 min 0 W/m 6,4 km/h (2 Bft) 100,00 %
25.04.2022 23:42 9,3 C 8,3 C 5,0 C 96 % 1014,4 hPa 0,0 l/m 0 min 0 min 0 W/m 9,7 km/h (2 Bft) 100,00 %
25.04.2022 23:44 9,3 C 8,3 C 5,0 C 96 % 1014,3 hPa 0,0 l/m 0 min 0 min 0 W/m 9,7 km/h (2 Bft) 100,00 %
25.04.2022 23:46 9,2 C 8,3 C 5,0 C 96 % 1014,3 hPa 0,0 l/m 0 min 0 min 0 W/m 9,7 km/h (2 Bft) 100,00 %
25.04.2022 23:48 9,2 C 8,3 C 5,0 C 96 % 1014,3 hPa 0,0 l/m 0 min 0 min 0 W/m 6,4 km/h (2 Bft) 100,00 %
25.04.2022 23:50 9,2 C 8,3 C 5,0 C 96 % 1014,3 hPa 0,0 l/m 0 min 0 min 0 W/m 3,2 km/h (1 Bft) 100,00 %
25.04.2022 23:52 9,2 C 8,3 C 5,0 C 96 % 1014,3 hPa 0,0 l/m 0 min 0 min 0 W/m 6,4 km/h (2 Bft) 100,00 %
25.04.2022 23:54 9,2 C 8,3 C 5,0 C 96 % 1014,3 hPa 0,0 l/m 0 min 0 min 0 W/m 9,7 km/h (2 Bft) 100,00 %
25.04.2022 23:56 9,2 C 8,3 C 5,0 C 96 % 1014,3 hPa 0,0 l/m 0 min 0 min 0 W/m 3,2 km/h (1 Bft) 100,00 %
25.04.2022 23:58 9,1 C 8,3 C 5,0 C 96 % 1014,4 hPa 0,0 l/m 0 min 0 min 0 W/m 6,4 km/h (2 Bft) 100,00 %
_ Min-Zeit 06:46 05:12 05:30 00:00 00:02 - - - - 04:24 02:44
Minimum _ 7,1 C 6,1 C 2,8 C 69 % 1006,9 hPa - - - - 0,0 km/h (0 Bft) 53,33 %
_ Max-Zeit 17:30 17:18 12:42 08:16 23:40 19:36 12:08 00:50 12:28 00:00 00:00
Maximum _ 15,7 C 21,1 C 13,9 C 96 % 1014,4 hPa 2,0 l/m 4 min 2 min 1032 W/m 25,7 km/h
O-SO (4 Bft)
100,00 %
Durchschnitt _ 10,3 C 10,5 C 6,4 C 88 % 1010,7 hPa #19,2 l/m #3:40 h #4:12 h 270 W/m 8,1 km/h (2 Bft) 97,52 %
© 2022 W. Hausmann